Time,TemperatureF,DewpointF,PressureIn,WindDirection,WindDirectionDegrees,WindSpeedMPH,WindSpeedGustMPH,Humidity,HourlyPrecipIn,Conditions,Clouds,dailyrainin,SoftwareType,DateUTC
2013-12-17 00:01:00,62.0,58.0,30.14,WNW,294,3.7,3.7,87,0.00,,,0.00,TxWx,2013-12-17 05:01:00,
2013-12-17 00:02:00,62.0,58.0,30.14,NW,316,3.7,4.3,87,0.00,,,0.00,TxWx,2013-12-17 05:02:00,
2013-12-17 00:06:00,62.1,58.0,30.14,NNW,339,6.2,6.8,88,0.00,,,0.00,TxWx,2013-12-17 05:06:00,
2013-12-17 00:07:00,62.0,58.0,30.14,WNW,294,2.5,2.5,87,0.00,,,0.00,TxWx,2013-12-17 05:07:00,
2013-12-17 00:11:00,62.0,58.0,30.14,WNW,294,5.6,5.6,87,0.00,,,0.00,TxWx,2013-12-17 05:11:00,
2013-12-17 00:12:00,61.9,58.0,30.14,WNW,294,3.1,4.3,87,0.00,,,0.00,TxWx,2013-12-17 05:12:00,
2013-12-17 00:13:00,62.1,58.0,30.14,NW,316,2.5,3.1,88,0.00,,,0.00,TxWx,2013-12-17 05:13:00,
2013-12-17 00:16:00,61.9,58.0,30.14,NNW,339,3.1,3.1,87,0.00,,,0.00,TxWx,2013-12-17 05:16:00,
2013-12-17 00:17:00,61.9,58.0,30.14,WNW,294,3.7,3.7,87,0.00,,,0.00,TxWx,2013-12-17 05:17:00,
2013-12-17 00:18:00,61.9,58.0,30.14,NNW,339,2.5,2.5,87,0.00,,,0.00,TxWx,2013-12-17 05:18:00,
2013-12-17 00:21:00,61.6,58.0,30.14,NW,316,6.8,10.5,87,0.00,,,0.00,TxWx,2013-12-17 05:21:00,
2013-12-17 00:22:00,61.6,58.0,30.14,WNW,294,4.3,5.0,87,0.00,,,0.00,TxWx,2013-12-17 05:22:00,
2013-12-17 00:23:00,61.6,58.0,30.14,WNW,294,1.9,2.5,87,0.00,,,0.00,TxWx,2013-12-17 05:23:00,
2013-12-17 00:26:00,61.4,57.0,30.14,NW,316,3.7,5.0,87,0.00,,,0.00,TxWx,2013-12-17 05:26:00,
2013-12-17 00:27:00,61.4,57.0,30.14,NW,316,4.3,4.3,87,0.00,,,0.00,TxWx,2013-12-17 05:27:00,
2013-12-17 00:28:00,61.3,57.0,30.14,NNW,339,4.3,5.0,87,0.00,,,0.00,TxWx,2013-12-17 05:28:00,
2013-12-17 00:29:00,61.4,57.0,30.14,WNW,294,4.3,4.3,88,0.00,,,0.00,TxWx,2013-12-17 05:29:00,
2013-12-17 00:31:00,61.3,57.0,30.14,West,271,3.1,3.7,87,0.00,,,0.00,TxWx,2013-12-17 05:31:00,
2013-12-17 00:32:00,61.3,57.0,30.14,WNW,294,5.0,5.0,87,0.00,,,0.00,TxWx,2013-12-17 05:32:00,
2013-12-17 00:33:00,61.3,57.0,30.14,NNW,339,5.0,5.6,88,0.00,,,0.00,TxWx,2013-12-17 05:33:00,
2013-12-17 00:34:00,61.3,57.0,30.14,West,271,7.4,8.0,88,0.00,,,0.00,TxWx,2013-12-17 05:34:00,
2013-12-17 00:37:00,61.3,57.0,30.14,NW,316,3.1,3.1,88,0.00,,,0.00,TxWx,2013-12-17 05:37:00,
2013-12-17 00:38:00,61.2,57.0,30.13,NW,316,6.2,6.8,88,0.00,,,0.00,TxWx,2013-12-17 05:38:00,
2013-12-17 00:39:00,61.2,57.0,30.14,NW,316,3.7,3.7,88,0.00,,,0.00,TxWx,2013-12-17 05:39:00,
2013-12-17 00:40:00,61.1,57.0,30.13,NNW,339,5.0,5.6,88,0.00,,,0.00,TxWx,2013-12-17 05:40:00,
2013-12-17 00:42:00,61.3,57.0,30.13,NNW,339,3.1,3.1,88,0.00,,,0.00,TxWx,2013-12-17 05:42:00,
2013-12-17 00:43:00,61.4,57.0,30.13,NW,316,3.1,3.7,88,0.00,,,0.00,TxWx,2013-12-17 05:43:00,
2013-12-17 00:44:00,61.3,57.0,30.13,NW,316,6.8,6.8,88,0.00,,,0.00,TxWx,2013-12-17 05:44:00,
2013-12-17 00:45:00,61.4,57.0,30.13,WNW,294,3.1,3.7,88,0.00,,,0.00,TxWx,2013-12-17 05:45:00,
2013-12-17 00:47:00,61.2,57.0,30.13,West,271,3.1,3.1,88,0.00,,,0.00,TxWx,2013-12-17 05:47:00,
2013-12-17 00:48:00,61.2,57.0,30.13,NW,316,3.1,3.7,88,0.00,,,0.00,TxWx,2013-12-17 05:48:00,
2013-12-17 00:50:00,61.2,57.0,30.13,NW,316,6.2,7.4,88,0.00,,,0.00,TxWx,2013-12-17 05:50:00,
2013-12-17 00:52:00,61.3,57.0,30.13,WNW,294,3.1,3.1,88,0.00,,,0.00,TxWx,2013-12-17 05:52:00,
2013-12-17 00:53:00,61.4,57.0,30.13,NW,316,3.7,3.7,88,0.00,,,0.00,TxWx,2013-12-17 05:53:00,
2013-12-17 00:54:00,61.2,57.0,30.13,NW,316,6.2,7.4,88,0.00,,,0.00,TxWx,2013-12-17 05:54:00,
2013-12-17 00:55:00,61.1,57.0,30.13,NNW,339,5.0,5.0,88,0.00,,,0.00,TxWx,2013-12-17 05:55:00,
2013-12-17 00:58:00,61.2,57.0,30.13,NW,316,5.6,5.6,88,0.00,,,0.00,TxWx,2013-12-17 05:58:00,
2013-12-17 00:59:00,61.0,57.0,30.13,WNW,294,3.1,3.1,88,0.00,,,0.00,TxWx,2013-12-17 05:59:00,
2013-12-17 01:00:00,60.9,57.0,30.13,WNW,294,3.7,3.7,88,0.00,,,0.00,TxWx,2013-12-17 06:00:00,
2013-12-17 01:01:00,61.0,57.0,30.13,WNW,294,3.7,3.7,88,0.00,,,0.00,TxWx,2013-12-17 06:01:00,
2013-12-17 01:03:00,60.8,57.0,30.13,West,271,3.7,4.3,88,0.00,,,0.00,TxWx,2013-12-17 06:03:00,
2013-12-17 01:05:00,60.7,57.0,30.13,WNW,294,4.3,4.3,88,0.00,,,0.00,TxWx,2013-12-17 06:05:00,
2013-12-17 01:06:00,60.6,57.0,30.13,NW,316,5.6,5.6,88,0.00,,,0.00,TxWx,2013-12-17 06:06:00,
2013-12-17 01:07:00,60.7,57.0,30.13,WNW,294,1.9,2.5,88,0.00,,,0.00,TxWx,2013-12-17 06:07:00,
2013-12-17 01:08:00,60.9,57.0,30.13,WNW,294,2.5,2.5,88,0.00,,,0.00,TxWx,2013-12-17 06:08:00,
2013-12-17 01:11:00,60.8,57.0,30.13,WNW,294,3.1,3.1,88,0.00,,,0.00,TxWx,2013-12-17 06:11:00,
2013-12-17 01:12:00,60.7,57.0,30.12,North,1,5.6,6.2,88,0.00,,,0.00,TxWx,2013-12-17 06:12:00,
2013-12-17 01:13:00,60.8,57.0,30.12,NW,316,2.5,2.5,88,0.00,,,0.00,TxWx,2013-12-17 06:13:00,
2013-12-17 01:14:00,60.6,57.0,30.13,West,271,5.6,6.8,88,0.00,,,0.00,TxWx,2013-12-17 06:14:00,
2013-12-17 01:16:00,60.8,57.0,30.12,NW,316,3.7,3.7,88,0.00,,,0.00,TxWx,2013-12-17 06:16:00,
2013-12-17 01:17:00,60.7,57.0,30.12,NNW,339,2.5,3.1,88,0.00,,,0.00,TxWx,2013-12-17 06:17:00,
2013-12-17 01:18:00,60.5,57.0,30.12,NW,316,6.2,6.8,88,0.00,,,0.00,TxWx,2013-12-17 06:18:00,
2013-12-17 01:19:00,60.6,57.0,30.12,NW,316,3.7,3.7,88,0.00,,,0.00,TxWx,2013-12-17 06:19:00,
2013-12-17 01:21:00,60.5,57.0,30.12,NW,316,2.5,2.5,88,0.00,,,0.00,TxWx,2013-12-17 06:21:00,
2013-12-17 01:23:00,60.6,57.0,30.12,WNW,294,3.1,3.1,88,0.00,,,0.00,TxWx,2013-12-17 06:23:00,
2013-12-17 01:24:00,60.7,57.0,30.12,NW,316,6.2,6.2,88,0.00,,,0.00,TxWx,2013-12-17 06:24:00,
2013-12-17 01:26:00,60.7,57.0,30.13,NW,316,3.1,3.1,88,0.00,,,0.00,TxWx,2013-12-17 06:26:00,
2013-12-17 01:28:00,60.5,56.0,30.13,NW,316,6.2,6.2,88,0.00,,,0.00,TxWx,2013-12-17 06:28:00,
2013-12-17 01:29:00,60.4,56.0,30.13,NW,316,4.3,5.0,88,0.00,,,0.00,TxWx,2013-12-17 06:29:00,
2013-12-17 01:31:00,60.5,57.0,30.12,WNW,294,3.1,3.7,88,0.00,,,0.00,TxWx,2013-12-17 06:31:00,
2013-12-17 01:33:00,60.5,57.0,30.13,NW,316,5.6,5.6,88,0.00,,,0.00,TxWx,2013-12-17 06:33:00,
2013-12-17 01:34:00,60.5,57.0,30.12,WNW,294,4.3,5.0,88,0.00,,,0.00,TxWx,2013-12-17 06:34:00,
2013-12-17 01:35:00,60.7,58.0,30.13,NNW,339,3.1,3.7,89,0.00,,,0.00,TxWx,2013-12-17 06:35:00,
2013-12-17 01:36:00,60.5,56.0,30.12,NNW,339,4.3,5.0,88,0.00,,,0.00,TxWx,2013-12-17 06:36:00,
2013-12-17 01:38:00,60.5,57.0,30.13,NW,316,3.7,3.7,88,0.00,,,0.00,TxWx,2013-12-17 06:38:00,
2013-12-17 01:39:00,60.5,57.0,30.12,NW,316,3.7,5.0,89,0.00,,,0.00,TxWx,2013-12-17 06:39:00,
2013-12-17 01:40:00,60.3,56.0,30.12,WNW,294,5.6,6.8,88,0.00,,,0.00,TxWx,2013-12-17 06:40:00,
2013-12-17 01:41:00,60.2,56.0,30.13,NW,316,3.1,3.7,88,0.00,,,0.00,TxWx,2013-12-17 06:41:00,
2013-12-17 01:42:00,60.3,56.0,30.13,WNW,294,3.7,5.0,88,0.00,,,0.00,TxWx,2013-12-17 06:42:00,
2013-12-17 01:44:00,60.2,56.0,30.12,NW,316,5.6,5.6,88,0.00,,,0.00,TxWx,2013-12-17 06:44:00,
2013-12-17 01:46:00,60.2,56.0,30.12,NNW,339,5.6,6.2,88,0.00,,,0.00,TxWx,2013-12-17 06:46:00,
2013-12-17 01:47:00,60.1,56.0,30.13,NW,316,3.7,4.3,88,0.00,,,0.00,TxWx,2013-12-17 06:47:00,
2013-12-17 01:49:00,60.3,57.0,30.13,NW,316,3.7,3.7,89,0.00,,,0.00,TxWx,2013-12-17 06:49:00,
2013-12-17 01:50:00,60.2,57.0,30.13,WNW,294,3.7,3.7,89,0.00,,,0.00,TxWx,2013-12-17 06:50:00,
2013-12-17 01:52:00,60.0,56.0,30.13,West,271,6.8,7.4,88,0.00,,,0.00,TxWx,2013-12-17 06:52:00,
2013-12-17 01:54:00,60.2,57.0,30.13,NW,316,8.7,8.7,89,0.00,,,0.00,TxWx,2013-12-17 06:54:00,
2013-12-17 01:55:00,60.1,57.0,30.13,NW,316,3.1,3.1,89,0.00,,,0.00,TxWx,2013-12-17 06:55:00,
2013-12-17 01:57:00,59.9,56.0,30.12,WNW,294,7.4,7.4,88,0.00,,,0.00,TxWx,2013-12-17 06:57:00,
2013-12-17 01:59:00,60.1,57.0,30.13,WNW,294,3.7,5.0,89,0.00,,,0.00,TxWx,2013-12-17 06:59:00,
2013-12-17 02:00:00,60.2,57.0,30.12,WNW,294,3.1,3.7,89,0.00,,,0.00,TxWx,2013-12-17 07:00:00,
2013-12-17 02:01:00,60.1,57.0,30.13,NNE,24,5.6,7.4,89,0.00,,,0.00,TxWx,2013-12-17 07:01:00,
2013-12-17 02:02:00,60.0,57.0,30.13,NW,316,3.7,4.3,89,0.00,,,0.00,TxWx,2013-12-17 07:02:00,
2013-12-17 02:03:00,60.1,57.0,30.13,WNW,294,3.7,3.7,89,0.00,,,0.00,TxWx,2013-12-17 07:03:00,
2013-12-17 02:04:00,60.2,57.0,30.13,WNW,294,4.3,4.3,89,0.00,,,0.00,TxWx,2013-12-17 07:04:00,
2013-12-17 02:05:00,60.2,57.0,30.13,WNW,294,6.2,6.2,89,0.00,,,0.00,TxWx,2013-12-17 07:05:00,
2013-12-17 02:06:00,60.2,57.0,30.13,NW,316,3.7,3.7,89,0.00,,,0.00,TxWx,2013-12-17 07:06:00,
2013-12-17 02:07:00,60.3,57.0,30.13,NW,316,3.7,4.3,89,0.00,,,0.00,TxWx,2013-12-17 07:07:00,
2013-12-17 02:09:00,60.1,57.0,30.13,NNW,339,4.3,4.3,89,0.00,,,0.00,TxWx,2013-12-17 07:09:00,
2013-12-17 02:10:00,60.0,57.0,30.12,WNW,294,5.0,5.0,89,0.00,,,0.00,TxWx,2013-12-17 07:10:00,
2013-12-17 02:11:00,60.2,57.0,30.12,WNW,294,8.7,8.7,89,0.00,,,0.00,TxWx,2013-12-17 07:11:00,
2013-12-17 02:12:00,60.1,57.0,30.12,NNW,339,3.7,3.7,89,0.00,,,0.00,TxWx,2013-12-17 07:12:00,
2013-12-17 02:13:00,60.1,57.0,30.12,West,271,6.8,6.8,89,0.00,,,0.00,TxWx,2013-12-17 07:13:00,
2013-12-17 02:15:00,60.2,57.0,30.12,NW,316,3.1,3.1,89,0.00,,,0.00,TxWx,2013-12-17 07:15:00,
2013-12-17 02:17:00,60.2,57.0,30.12,WNW,294,3.7,3.7,89,0.00,,,0.00,TxWx,2013-12-17 07:17:00,
2013-12-17 02:18:00,60.0,57.0,30.12,NW,316,3.7,4.3,89,0.00,,,0.00,TxWx,2013-12-17 07:18:00,
2013-12-17 02:19:00,60.0,57.0,30.12,NW,316,5.6,5.6,89,0.00,,,0.00,TxWx,2013-12-17 07:19:00,
2013-12-17 02:20:00,59.9,57.0,30.12,WNW,294,7.4,7.4,89,0.00,,,0.00,TxWx,2013-12-17 07:20:00,
2013-12-17 02:21:00,60.0,57.0,30.12,WNW,294,4.3,5.6,89,0.00,,,0.00,TxWx,2013-12-17 07:21:00,
2013-12-17 02:22:00,60.0,57.0,30.12,NW,316,9.3,9.3,89,0.00,,,0.00,TxWx,2013-12-17 07:22:00,
2013-12-17 02:23:00,59.9,57.0,30.12,NNW,339,8.0,8.0,89,0.00,,,0.00,TxWx,2013-12-17 07:23:00,
2013-12-17 02:24:00,59.9,57.0,30.12,NW,316,6.2,6.2,89,0.00,,,0.00,TxWx,2013-12-17 07:24:00,
2013-12-17 02:25:00,60.1,57.0,30.12,WNW,294,5.0,6.2,89,0.00,,,0.00,TxWx,2013-12-17 07:25:00,
2013-12-17 02:26:00,60.0,57.0,30.12,NW,316,6.8,6.8,89,0.00,,,0.00,TxWx,2013-12-17 07:26:00,
2013-12-17 02:28:00,60.0,57.0,30.12,NW,316,6.8,6.8,89,0.00,,,0.00,TxWx,2013-12-17 07:28:00,
2013-12-17 02:29:00,60.1,57.0,30.12,NW,316,5.0,5.6,89,0.00,,,0.00,TxWx,2013-12-17 07:29:00,
2013-12-17 02:30:00,60.3,57.0,30.12,NW,316,5.0,5.6,89,0.00,,,0.00,TxWx,2013-12-17 07:30:00,
2013-12-17 02:31:00,60.3,57.0,30.12,NW,316,4.3,4.3,89,0.00,,,0.00,TxWx,2013-12-17 07:31:00,
2013-12-17 02:33:00,60.3,57.0,30.12,NW,316,6.8,6.8,89,0.00,,,0.00,TxWx,2013-12-17 07:33:00,
2013-12-17 02:34:00,60.2,57.0,30.12,NW,316,5.0,5.6,89,0.00,,,0.00,TxWx,2013-12-17 07:34:00,
2013-12-17 02:36:00,60.2,57.0,30.12,WNW,294,3.1,3.1,89,0.00,,,0.00,TxWx,2013-12-17 07:36:00,
2013-12-17 02:38:00,60.2,57.0,30.12,NW,316,2.5,2.5,89,0.00,,,0.00,TxWx,2013-12-17 07:38:00,
2013-12-17 02:39:00,60.3,57.0,30.12,NW,316,2.5,2.5,89,0.00,,,0.00,TxWx,2013-12-17 07:39:00,
2013-12-17 02:41:00,60.4,57.0,30.12,WNW,294,5.0,5.0,90,0.00,,,0.00,TxWx,2013-12-17 07:41:00,
2013-12-17 02:44:00,60.3,57.0,30.12,WNW,294,5.0,5.0,89,0.00,,,0.00,TxWx,2013-12-17 07:44:00,
2013-12-17 02:46:00,60.2,57.0,30.12,WNW,294,3.1,3.1,89,0.00,,,0.00,TxWx,2013-12-17 07:46:00,
2013-12-17 02:47:00,60.3,57.0,30.12,WNW,294,3.1,3.1,89,0.00,,,0.00,TxWx,2013-12-17 07:47:00,
2013-12-17 02:49:00,60.2,57.0,30.12,NW,316,4.3,4.3,89,0.00,,,0.00,TxWx,2013-12-17 07:49:00,
2013-12-17 02:50:00,60.2,57.0,30.12,WNW,294,3.7,3.7,89,0.00,,,0.00,TxWx,2013-12-17 07:50:00,
2013-12-17 02:51:00,60.1,57.0,30.12,West,271,3.7,4.3,89,0.00,,,0.00,TxWx,2013-12-17 07:51:00,
2013-12-17 02:52:00,60.1,57.0,30.12,WNW,294,3.1,3.1,89,0.00,,,0.00,TxWx,2013-12-17 07:52:00,
2013-12-17 02:54:00,60.2,57.0,30.12,NNW,339,5.0,5.0,89,0.00,,,0.00,TxWx,2013-12-17 07:54:00,
2013-12-17 02:55:00,60.0,57.0,30.12,NW,316,3.1,3.1,89,0.00,,,0.00,TxWx,2013-12-17 07:55:00,
2013-12-17 02:57:00,60.2,57.0,30.12,NNW,339,3.7,4.3,90,0.00,,,0.00,TxWx,2013-12-17 07:57:00,
2013-12-17 02:59:00,59.9,57.0,30.12,WNW,294,3.1,3.1,89,0.00,,,0.00,TxWx,2013-12-17 07:59:00,
2013-12-17 03:00:00,59.9,57.0,30.12,WNW,294,3.1,3.1,89,0.00,,,0.00,TxWx,2013-12-17 08:00:00,
2013-12-17 03:01:00,59.9,57.0,30.12,NW,316,3.7,4.3,89,0.00,,,0.00,TxWx,2013-12-17 08:01:00,
2013-12-17 03:02:00,59.8,57.0,30.12,NW,316,5.0,5.0,89,0.00,,,0.00,TxWx,2013-12-17 08:02:00,
2013-12-17 03:05:00,60.0,57.0,30.12,NNW,339,5.0,5.0,89,0.00,,,0.00,TxWx,2013-12-17 08:05:00,
2013-12-17 03:06:00,60.0,57.0,30.12,NW,316,3.7,3.7,89,0.00,,,0.00,TxWx,2013-12-17 08:06:00,
2013-12-17 03:07:00,60.0,57.0,30.12,NW,316,4.3,4.3,89,0.00,,,0.00,TxWx,2013-12-17 08:07:00,
2013-12-17 03:10:00,60.0,57.0,30.13,NW,316,5.6,5.6,90,0.00,,,0.00,TxWx,2013-12-17 08:10:00,
2013-12-17 03:11:00,60.0,57.0,30.13,NW,316,5.0,6.2,90,0.00,,,0.00,TxWx,2013-12-17 08:11:00,
2013-12-17 03:12:00,60.1,57.0,30.13,WNW,294,3.1,3.7,90,0.00,,,0.00,TxWx,2013-12-17 08:12:00,
2013-12-17 03:15:00,60.2,57.0,30.12,WNW,294,2.5,3.1,90,0.00,,,0.00,TxWx,2013-12-17 08:15:00,
2013-12-17 03:16:00,60.2,57.0,30.12,NW,316,2.5,2.5,90,0.00,,,0.00,TxWx,2013-12-17 08:16:00,
2013-12-17 03:17:00,60.1,57.0,30.12,WNW,294,3.1,3.1,89,0.00,,,0.00,TxWx,2013-12-17 08:17:00,
2013-12-17 03:22:00,60.2,57.0,30.12,NW,316,2.5,3.1,90,0.00,,,0.00,TxWx,2013-12-17 08:22:00,
2013-12-17 03:23:00,60.3,57.0,30.12,NW,316,8.0,8.0,90,0.00,,,0.00,TxWx,2013-12-17 08:23:00,
2013-12-17 03:27:00,60.3,57.0,30.13,NW,316,3.7,3.7,90,0.00,,,0.00,TxWx,2013-12-17 08:27:00,
2013-12-17 03:28:00,60.4,57.0,30.13,NW,316,4.3,5.0,90,0.00,,,0.00,TxWx,2013-12-17 08:28:00,
2013-12-17 03:32:00,60.4,57.0,30.12,WNW,294,3.1,3.1,90,0.00,,,0.00,TxWx,2013-12-17 08:32:00,
2013-12-17 03:33:00,60.5,57.0,30.12,NW,316,3.1,3.1,90,0.00,,,0.00,TxWx,2013-12-17 08:33:00,
2013-12-17 03:34:00,60.6,58.0,30.12,NW,316,3.7,3.7,90,0.00,,,0.00,TxWx,2013-12-17 08:34:00,
2013-12-17 03:37:00,60.5,58.0,30.12,North,1,3.7,4.3,90,0.00,,,0.00,TxWx,2013-12-17 08:37:00,
2013-12-17 03:38:00,60.5,58.0,30.12,NW,316,5.0,5.6,90,0.00,,,0.00,TxWx,2013-12-17 08:38:00,
2013-12-17 03:39:00,60.5,58.0,30.12,NW,316,5.0,5.0,89,0.00,,,0.00,TxWx,2013-12-17 08:39:00,
2013-12-17 03:42:00,60.7,58.0,30.12,NW,316,3.7,3.7,90,0.00,,,0.00,TxWx,2013-12-17 08:42:00,
2013-12-17 03:43:00,60.6,58.0,30.12,NW,316,1.9,1.9,90,0.00,,,0.00,TxWx,2013-12-17 08:43:00,
2013-12-17 03:44:00,60.6,58.0,30.12,WNW,294,3.7,3.7,90,0.00,,,0.00,TxWx,2013-12-17 08:44:00,
2013-12-17 03:45:00,60.6,58.0,30.13,NW,316,3.1,4.3,90,0.00,,,0.00,TxWx,2013-12-17 08:45:00,
2013-12-17 03:47:00,60.8,58.0,30.12,NW,316,1.9,1.9,90,0.00,,,0.00,TxWx,2013-12-17 08:47:00,
2013-12-17 03:49:00,60.7,58.0,30.12,NW,316,5.0,5.0,90,0.00,,,0.00,TxWx,2013-12-17 08:49:00,
2013-12-17 03:50:00,60.7,58.0,30.12,WNW,294,2.5,3.1,89,0.00,,,0.00,TxWx,2013-12-17 08:50:00,
2013-12-17 03:52:00,60.7,58.0,30.12,NW,316,2.5,2.5,89,0.00,,,0.00,TxWx,2013-12-17 08:52:00,
2013-12-17 03:53:00,60.7,58.0,30.12,NW,316,2.5,2.5,89,0.00,,,0.00,TxWx,2013-12-17 08:53:00,
2013-12-17 03:54:00,60.7,58.0,30.12,NW,316,1.9,2.5,89,0.00,,,0.00,TxWx,2013-12-17 08:54:00,
2013-12-17 03:55:00,60.8,58.0,30.12,NW,316,5.0,5.6,90,0.00,,,0.00,TxWx,2013-12-17 08:55:00,
2013-12-17 03:58:00,60.8,58.0,30.12,NW,316,3.1,3.1,89,0.00,,,0.00,TxWx,2013-12-17 08:58:00,
2013-12-17 03:59:00,60.9,58.0,30.12,NW,316,3.1,3.1,89,0.00,,,0.00,TxWx,2013-12-17 08:59:00,
2013-12-17 04:00:00,60.9,58.0,30.12,NW,316,3.1,3.1,90,0.00,,,0.00,TxWx,2013-12-17 09:00:00,
2013-12-17 04:03:00,60.9,58.0,30.13,NW,316,2.5,2.5,90,0.00,,,0.00,TxWx,2013-12-17 09:03:00,
2013-12-17 04:04:00,61.0,58.0,30.12,NW,316,2.5,2.5,90,0.00,,,0.00,TxWx,2013-12-17 09:04:00,
2013-12-17 04:05:00,61.0,58.0,30.12,NW,316,6.8,6.8,90,0.00,,,0.00,TxWx,2013-12-17 09:05:00,
2013-12-17 04:06:00,60.8,58.0,30.12,NW,316,3.1,4.3,89,0.00,,,0.00,TxWx,2013-12-17 09:06:00,
2013-12-17 04:08:00,60.8,58.0,30.12,NW,316,4.3,4.3,89,0.00,,,0.00,TxWx,2013-12-17 09:08:00,
2013-12-17 04:09:00,60.8,58.0,30.12,NW,316,2.5,2.5,89,0.00,,,0.00,TxWx,2013-12-17 09:09:00,
2013-12-17 04:11:00,60.7,58.0,30.12,WNW,294,3.7,4.3,89,0.00,,,0.00,TxWx,2013-12-17 09:11:00,
2013-12-17 04:13:00,60.5,58.0,30.12,WNW,294,3.1,3.1,89,0.00,,,0.00,TxWx,2013-12-17 09:13:00,
2013-12-17 04:14:00,60.5,58.0,30.12,NW,316,4.3,4.3,89,0.00,,,0.00,TxWx,2013-12-17 09:14:00,
2013-12-17 04:15:00,60.5,58.0,30.12,NW,316,3.1,3.7,89,0.00,,,0.00,TxWx,2013-12-17 09:15:00,
2013-12-17 04:16:00,60.5,58.0,30.12,WNW,294,3.7,4.3,89,0.00,,,0.00,TxWx,2013-12-17 09:16:00,
2013-12-17 04:18:00,60.6,58.0,30.12,NW,316,3.7,3.7,89,0.00,,,0.00,TxWx,2013-12-17 09:18:00,
2013-12-17 04:20:00,60.5,58.0,30.12,NW,316,2.5,3.1,89,0.00,,,0.00,TxWx,2013-12-17 09:20:00,
2013-12-17 04:22:00,60.7,58.0,30.12,NW,316,3.1,3.7,89,0.00,,,0.00,TxWx,2013-12-17 09:22:00,
2013-12-17 04:23:00,60.6,58.0,30.12,NW,316,3.7,4.3,89,0.00,,,0.00,TxWx,2013-12-17 09:23:00,
2013-12-17 04:25:00,60.6,58.0,30.12,WNW,294,3.7,3.7,89,0.00,,,0.00,TxWx,2013-12-17 09:25:00,
2013-12-17 04:27:00,60.6,58.0,30.12,NNW,339,2.5,3.1,89,0.00,,,0.00,TxWx,2013-12-17 09:27:00,
2013-12-17 04:28:00,60.7,58.0,30.12,WNW,294,3.7,3.7,89,0.00,,,0.00,TxWx,2013-12-17 09:28:00,
2013-12-17 04:29:00,60.5,58.0,30.12,NW,316,4.3,6.2,89,0.00,,,0.00,TxWx,2013-12-17 09:29:00,
2013-12-17 04:30:00,60.6,58.0,30.12,NW,316,3.7,4.3,89,0.00,,,0.00,TxWx,2013-12-17 09:30:00,
2013-12-17 04:32:00,60.7,58.0,30.12,WNW,294,3.1,3.1,89,0.00,,,0.00,TxWx,2013-12-17 09:32:00,
2013-12-17 04:34:00,60.7,58.0,30.12,NW,316,3.1,3.1,89,0.00,,,0.00,TxWx,2013-12-17 09:34:00,
2013-12-17 04:35:00,60.5,58.0,30.12,NNW,339,4.3,5.6,89,0.00,,,0.00,TxWx,2013-12-17 09:35:00,
2013-12-17 04:36:00,60.6,58.0,30.12,NNW,339,3.7,3.7,89,0.00,,,0.00,TxWx,2013-12-17 09:36:00,
2013-12-17 04:37:00,60.7,58.0,30.12,NW,316,2.5,3.1,89,0.00,,,0.00,TxWx,2013-12-17 09:37:00,
2013-12-17 04:39:00,60.6,58.0,30.12,NW,316,2.5,3.1,89,0.00,,,0.00,TxWx,2013-12-17 09:39:00,
2013-12-17 04:40:00,60.5,58.0,30.12,NW,316,3.1,3.7,89,0.00,,,0.00,TxWx,2013-12-17 09:40:00,
2013-12-17 04:41:00,60.5,58.0,30.12,NW,316,3.1,3.1,89,0.00,,,0.00,TxWx,2013-12-17 09:41:00,
2013-12-17 04:42:00,60.5,57.0,30.12,WNW,294,3.1,3.1,89,0.00,,,0.00,TxWx,2013-12-17 09:42:00,
2013-12-17 04:44:00,60.5,58.0,30.12,NW,316,3.7,4.3,89,0.00,,,0.00,TxWx,2013-12-17 09:44:00,
2013-12-17 04:45:00,60.4,57.0,30.12,NW,316,3.7,4.3,89,0.00,,,0.00,TxWx,2013-12-17 09:45:00,
2013-12-17 04:46:00,60.4,57.0,30.12,NW,316,2.5,2.5,89,0.00,,,0.00,TxWx,2013-12-17 09:46:00,
2013-12-17 04:48:00,60.4,57.0,30.12,WNW,294,3.7,4.3,89,0.00,,,0.00,TxWx,2013-12-17 09:48:00,
2013-12-17 04:49:00,60.4,57.0,30.12,NW,316,2.5,3.1,89,0.00,,,0.00,TxWx,2013-12-17 09:49:00,
2013-12-17 04:51:00,60.4,57.0,30.12,WNW,294,4.3,4.3,89,0.00,,,0.00,TxWx,2013-12-17 09:51:00,
2013-12-17 04:52:00,60.3,57.0,30.12,WNW,294,3.7,6.2,89,0.00,,,0.00,TxWx,2013-12-17 09:52:00,
2013-12-17 04:53:00,60.3,57.0,30.12,NW,316,2.5,2.5,89,0.00,,,0.00,TxWx,2013-12-17 09:53:00,
2013-12-17 04:55:00,60.4,57.0,30.12,NW,316,1.9,2.5,89,0.00,,,0.00,TxWx,2013-12-17 09:55:00,
2013-12-17 04:56:00,60.4,57.0,30.12,NW,316,2.5,2.5,89,0.00,,,0.00,TxWx,2013-12-17 09:56:00,
2013-12-17 04:57:00,60.4,57.0,30.13,WNW,294,3.1,3.1,89,0.00,,,0.00,TxWx,2013-12-17 09:57:00,
2013-12-17 04:58:00,60.3,57.0,30.13,WNW,294,3.1,3.1,89,0.00,,,0.00,TxWx,2013-12-17 09:58:00,
2013-12-17 05:00:00,60.3,57.0,30.12,WNW,294,2.5,3.1,89,0.00,,,0.00,TxWx,2013-12-17 10:00:00,
2013-12-17 05:01:00,60.4,57.0,30.13,WNW,294,3.1,3.1,89,0.00,,,0.00,TxWx,2013-12-17 10:01:00,
2013-12-17 05:02:00,60.4,57.0,30.13,NW,316,2.5,2.5,89,0.00,,,0.00,TxWx,2013-12-17 10:02:00,
2013-12-17 05:03:00,60.4,57.0,30.13,NW,316,3.7,4.3,89,0.00,,,0.00,TxWx,2013-12-17 10:03:00,
2013-12-17 05:04:00,60.4,57.0,30.13,NW,316,5.6,6.2,89,0.00,,,0.00,TxWx,2013-12-17 10:04:00,
2013-12-17 05:05:00,60.4,57.0,30.13,WNW,294,3.7,4.3,89,0.00,,,0.00,TxWx,2013-12-17 10:05:00,
2013-12-17 05:07:00,60.2,57.0,30.13,NW,316,3.1,3.7,89,0.00,,,0.00,TxWx,2013-12-17 10:07:00,
2013-12-17 05:08:00,60.3,57.0,30.13,NW,316,6.2,6.2,89,0.00,,,0.00,TxWx,2013-12-17 10:08:00,
2013-12-17 05:09:00,60.4,57.0,30.13,NW,316,3.1,3.7,89,0.00,,,0.00,TxWx,2013-12-17 10:09:00,
2013-12-17 05:10:00,60.3,57.0,30.13,NNW,339,4.3,5.6,89,0.00,,,0.00,TxWx,2013-12-17 10:10:00,
2013-12-17 05:12:00,60.3,57.0,30.13,NNW,339,2.5,2.5,89,0.00,,,0.00,TxWx,2013-12-17 10:12:00,
2013-12-17 05:13:00,60.3,57.0,30.13,NW,316,3.7,3.7,89,0.00,,,0.00,TxWx,2013-12-17 10:13:00,
2013-12-17 05:14:00,60.3,57.0,30.13,NNW,339,2.5,3.7,89,0.00,,,0.00,TxWx,2013-12-17 10:14:00,
2013-12-17 05:16:00,60.3,57.0,30.13,WNW,294,3.7,3.7,89,0.00,,,0.00,TxWx,2013-12-17 10:16:00,
2013-12-17 05:17:00,60.3,57.0,30.13,NNW,339,4.3,5.6,89,0.00,,,0.00,TxWx,2013-12-17 10:17:00,
2013-12-17 05:18:00,60.3,57.0,30.13,NW,316,2.5,2.5,89,0.00,,,0.00,TxWx,2013-12-17 10:18:00,
2013-12-17 05:19:00,60.3,57.0,30.13,NW,316,2.5,3.1,89,0.00,,,0.00,TxWx,2013-12-17 10:19:00,
2013-12-17 05:20:00,60.3,57.0,30.13,NNW,339,3.1,3.7,89,0.00,,,0.00,TxWx,2013-12-17 10:20:00,
2013-12-17 05:21:00,60.2,57.0,30.13,NW,316,3.7,5.0,89,0.00,,,0.00,TxWx,2013-12-17 10:21:00,
2013-12-17 05:23:00,60.2,57.0,30.13,NW,316,5.6,5.6,89,0.00,,,0.00,TxWx,2013-12-17 10:23:00,
2013-12-17 05:24:00,60.3,57.0,30.13,WNW,294,4.3,4.3,89,0.00,,,0.00,TxWx,2013-12-17 10:24:00,
2013-12-17 05:25:00,60.4,57.0,30.13,NNW,339,2.5,3.1,89,0.00,,,0.00,TxWx,2013-12-17 10:25:00,
2013-12-17 05:26:00,60.4,57.0,30.13,WNW,294,2.5,2.5,89,0.00,,,0.00,TxWx,2013-12-17 10:26:00,
2013-12-17 05:28:00,60.4,57.0,30.13,NW,316,4.3,4.3,89,0.00,,,0.00,TxWx,2013-12-17 10:28:00,
2013-12-17 05:29:00,60.3,57.0,30.13,NW,316,3.7,4.3,89,0.00,,,0.00,TxWx,2013-12-17 10:29:00,
2013-12-17 05:31:00,60.2,57.0,30.13,NW,316,2.5,2.5,89,0.00,,,0.00,TxWx,2013-12-17 10:31:00,
2013-12-17 05:33:00,60.1,57.0,30.13,NW,316,5.0,5.0,89,0.00,,,0.00,TxWx,2013-12-17 10:33:00,
2013-12-17 05:34:00,60.2,57.0,30.13,NW,316,1.9,2.5,89,0.00,,,0.00,TxWx,2013-12-17 10:34:00,
2013-12-17 05:36:00,60.2,57.0,30.13,NW,316,3.1,3.1,89,0.00,,,0.00,TxWx,2013-12-17 10:36:00,
2013-12-17 05:37:00,60.3,57.0,30.13,NW,316,1.9,2.5,89,0.00,,,0.00,TxWx,2013-12-17 10:37:00,
2013-12-17 05:38:00,60.2,57.0,30.13,WNW,294,1.9,2.5,89,0.00,,,0.00,TxWx,2013-12-17 10:38:00,
2013-12-17 05:39:00,60.2,57.0,30.13,NW,316,3.1,3.1,89,0.00,,,0.00,TxWx,2013-12-17 10:39:00,
2013-12-17 05:40:00,60.2,57.0,30.13,WNW,294,3.7,3.7,89,0.00,,,0.00,TxWx,2013-12-17 10:40:00,
2013-12-17 05:42:00,60.3,57.0,30.13,NW,316,2.5,2.5,89,0.00,,,0.00,TxWx,2013-12-17 10:42:00,
2013-12-17 05:43:00,60.3,57.0,30.13,NW,316,3.1,3.1,89,0.00,,,0.00,TxWx,2013-12-17 10:43:00,
2013-12-17 05:44:00,60.3,57.0,30.14,NNW,339,4.3,5.0,89,0.00,,,0.00,TxWx,2013-12-17 10:44:00,
2013-12-17 05:45:00,60.3,57.0,30.13,NNW,339,2.5,2.5,89,0.00,,,0.00,TxWx,2013-12-17 10:45:00,
2013-12-17 05:46:00,60.2,57.0,30.13,NW,316,5.6,5.6,89,0.00,,,0.00,TxWx,2013-12-17 10:46:00,
2013-12-17 05:47:00,60.3,57.0,30.14,NW,316,3.7,3.7,89,0.00,,,0.00,TxWx,2013-12-17 10:47:00,
2013-12-17 05:48:00,60.3,57.0,30.13,NW,316,5.0,6.2,89,0.00,,,0.00,TxWx,2013-12-17 10:48:00,
2013-12-17 05:49:00,60.3,57.0,30.13,NNW,339,1.9,1.9,89,0.00,,,0.00,TxWx,2013-12-17 10:49:00,
2013-12-17 05:50:00,60.4,57.0,30.14,NW,316,3.7,3.7,89,0.00,,,0.00,TxWx,2013-12-17 10:50:00,
2013-12-17 05:51:00,60.3,57.0,30.14,NW,316,1.9,1.9,89,0.00,,,0.00,TxWx,2013-12-17 10:51:00,
2013-12-17 05:52:00,60.3,57.0,30.14,NNW,339,3.1,3.1,89,0.00,,,0.00,TxWx,2013-12-17 10:52:00,
2013-12-17 05:53:00,60.4,57.0,30.14,NNW,339,3.1,3.1,89,0.00,,,0.00,TxWx,2013-12-17 10:53:00,
2013-12-17 05:54:00,60.4,57.0,30.14,NW,316,3.1,3.1,89,0.00,,,0.00,TxWx,2013-12-17 10:54:00,
2013-12-17 05:55:00,60.3,57.0,30.13,NNW,339,3.1,3.7,89,0.00,,,0.00,TxWx,2013-12-17 10:55:00,
2013-12-17 05:56:00,60.3,57.0,30.14,NW,316,3.1,3.7,89,0.00,,,0.00,TxWx,2013-12-17 10:56:00,
2013-12-17 05:57:00,60.4,57.0,30.14,NW,316,5.6,6.8,89,0.00,,,0.00,TxWx,2013-12-17 10:57:00,
2013-12-17 05:58:00,60.5,57.0,30.14,NW,316,1.9,2.5,89,0.00,,,0.00,TxWx,2013-12-17 10:58:00,
2013-12-17 06:00:00,60.4,57.0,30.14,NNW,339,4.3,4.3,89,0.00,,,0.00,TxWx,2013-12-17 11:00:00,
2013-12-17 06:01:00,60.4,57.0,30.14,NW,316,1.9,2.5,89,0.00,,,0.00,TxWx,2013-12-17 11:01:00,
2013-12-17 06:02:00,60.4,57.0,30.14,NNW,339,3.7,3.7,89,0.00,,,0.00,TxWx,2013-12-17 11:02:00,
2013-12-17 06:03:00,60.4,57.0,30.14,NW,316,2.5,3.1,89,0.00,,,0.00,TxWx,2013-12-17 11:03:00,
2013-12-17 06:05:00,60.4,57.0,30.14,NW,316,3.1,3.1,89,0.00,,,0.00,TxWx,2013-12-17 11:05:00,
2013-12-17 06:06:00,60.4,57.0,30.14,NW,316,1.9,1.9,89,0.00,,,0.00,TxWx,2013-12-17 11:06:00,
2013-12-17 06:07:00,60.4,57.0,30.14,NNW,339,4.3,4.3,89,0.00,,,0.00,TxWx,2013-12-17 11:07:00,
2013-12-17 06:08:00,60.5,57.0,30.14,NNW,339,3.1,3.7,89,0.00,,,0.00,TxWx,2013-12-17 11:08:00,
2013-12-17 06:10:00,60.5,58.0,30.14,NW,316,3.1,3.7,89,0.00,,,0.00,TxWx,2013-12-17 11:10:00,
2013-12-17 06:12:00,60.5,58.0,30.14,NW,316,1.9,1.9,89,0.00,,,0.00,TxWx,2013-12-17 11:12:00,
2013-12-17 06:13:00,60.6,58.0,30.14,NNW,339,3.7,4.3,89,0.00,,,0.00,TxWx,2013-12-17 11:13:00,
2013-12-17 06:15:00,60.7,58.0,30.14,NW,316,2.5,3.1,89,0.00,,,0.00,TxWx,2013-12-17 11:15:00,
2013-12-17 06:17:00,60.7,58.0,30.14,NNW,339,3.7,4.3,89,0.00,,,0.00,TxWx,2013-12-17 11:17:00,
2013-12-17 06:18:00,60.6,58.0,30.14,WNW,294,3.7,3.7,89,0.00,,,0.00,TxWx,2013-12-17 11:18:00,
2013-12-17 06:19:00,60.7,58.0,30.14,WNW,294,3.7,3.7,89,0.00,,,0.00,TxWx,2013-12-17 11:19:00,
2013-12-17 06:20:00,60.7,58.0,30.14,WNW,294,3.7,3.7,89,0.00,,,0.00,TxWx,2013-12-17 11:20:00,
2013-12-17 06:22:00,60.6,58.0,30.14,NW,316,2.5,3.1,89,0.00,,,0.00,TxWx,2013-12-17 11:22:00,
2013-12-17 06:23:00,60.7,58.0,30.14,NW,316,2.5,2.5,89,0.00,,,0.00,TxWx,2013-12-17 11:23:00,
2013-12-17 06:24:00,60.7,58.0,30.14,NW,316,2.5,2.5,89,0.00,,,0.00,TxWx,2013-12-17 11:24:00,
2013-12-17 06:25:00,60.7,58.0,30.14,NW,316,2.5,2.5,89,0.00,,,0.00,TxWx,2013-12-17 11:25:00,
2013-12-17 06:28:00,60.8,58.0,30.14,NW,316,3.1,3.1,89,0.00,,,0.00,TxWx,2013-12-17 11:28:00,
2013-12-17 06:29:00,60.7,58.0,30.14,NNW,339,4.3,4.3,89,0.00,,,0.00,TxWx,2013-12-17 11:29:00,
2013-12-17 06:30:00,60.8,58.0,30.14,NW,316,2.5,2.5,89,0.00,,,0.00,TxWx,2013-12-17 11:30:00,
2013-12-17 06:33:00,60.8,58.0,30.14,NNW,339,2.5,2.5,89,0.00,,,0.00,TxWx,2013-12-17 11:33:00,
2013-12-17 06:34:00,60.8,58.0,30.14,NW,316,2.5,2.5,89,0.00,,,0.00,TxWx,2013-12-17 11:34:00,
2013-12-17 06:35:00,60.8,58.0,30.14,NW,316,1.9,1.9,89,0.00,,,0.00,TxWx,2013-12-17 11:35:00,
2013-12-17 06:36:00,60.8,58.0,30.14,NW,316,2.5,2.5,89,0.00,,,0.00,TxWx,2013-12-17 11:36:00,
2013-12-17 06:38:00,60.9,58.0,30.14,WNW,294,2.5,2.5,89,0.00,,,0.00,TxWx,2013-12-17 11:38:00,
2013-12-17 06:39:00,60.8,58.0,30.14,NW,316,7.4,7.4,89,0.00,,,0.00,TxWx,2013-12-17 11:39:00,
2013-12-17 06:40:00,60.9,58.0,30.14,NW,316,3.1,3.7,89,0.00,,,0.00,TxWx,2013-12-17 11:40:00,
2013-12-17 06:41:00,61.0,58.0,30.14,NW,316,1.9,1.9,89,0.00,,,0.00,TxWx,2013-12-17 11:41:00,
2013-12-17 06:43:00,60.9,58.0,30.14,NW,316,2.5,3.1,89,0.00,,,0.00,TxWx,2013-12-17 11:43:00,
2013-12-17 06:44:00,61.0,58.0,30.15,NW,316,2.5,2.5,89,0.00,,,0.00,TxWx,2013-12-17 11:44:00,
2013-12-17 06:46:00,61.1,58.0,30.15,NNW,339,5.0,5.0,89,0.00,,,0.00,TxWx,2013-12-17 11:46:00,
2013-12-17 06:48:00,61.1,58.0,30.15,NW,316,3.1,3.1,89,0.00,,,0.00,TxWx,2013-12-17 11:48:00,
2013-12-17 06:49:00,61.1,58.0,30.15,NW,316,3.1,3.1,89,0.00,,,0.00,TxWx,2013-12-17 11:49:00,
2013-12-17 06:50:00,61.1,58.0,30.15,NW,316,3.1,3.1,89,0.00,,,0.00,TxWx,2013-12-17 11:50:00,
2013-12-17 06:51:00,61.1,58.0,30.15,NW,316,2.5,3.1,89,0.00,,,0.00,TxWx,2013-12-17 11:51:00,
2013-12-17 06:53:00,61.2,58.0,30.15,WNW,294,3.1,3.1,89,0.00,,,0.00,TxWx,2013-12-17 11:53:00,
2013-12-17 06:54:00,61.2,58.0,30.15,WNW,294,3.7,5.0,89,0.00,,,0.00,TxWx,2013-12-17 11:54:00,
2013-12-17 06:55:00,61.2,58.0,30.15,NW,316,2.5,2.5,89,0.00,,,0.00,TxWx,2013-12-17 11:55:00,
2013-12-17 06:56:00,61.3,58.0,30.15,WNW,294,3.7,3.7,89,0.00,,,0.00,TxWx,2013-12-17 11:56:00,
2013-12-17 06:57:00,61.3,58.0,30.15,WNW,294,2.5,2.5,89,0.00,,,0.00,TxWx,2013-12-17 11:57:00,
2013-12-17 06:58:00,61.2,58.0,30.15,NW,316,4.3,4.3,89,0.00,,,0.00,TxWx,2013-12-17 11:58:00,
2013-12-17 06:59:00,61.3,58.0,30.15,WNW,294,4.3,4.3,89,0.00,,,0.00,TxWx,2013-12-17 11:59:00,
2013-12-17 07:00:00,61.2,58.0,30.15,NW,316,3.1,3.1,89,0.00,,,0.00,TxWx,2013-12-17 12:00:00,
2013-12-17 07:01:00,61.3,58.0,30.15,NW,316,3.1,3.1,89,0.00,,,0.00,TxWx,2013-12-17 12:01:00,
2013-12-17 07:02:00,61.3,58.0,30.15,NW,316,3.7,3.7,89,0.00,,,0.00,TxWx,2013-12-17 12:02:00,
2013-12-17 07:03:00,61.3,58.0,30.15,NW,316,3.1,3.1,89,0.00,,,0.00,TxWx,2013-12-17 12:03:00,
2013-12-17 07:05:00,61.3,58.0,30.15,NW,316,1.9,1.9,89,0.00,,,0.00,TxWx,2013-12-17 12:05:00,
2013-12-17 07:07:00,61.3,58.0,30.15,NW,316,3.1,3.1,89,0.00,,,0.00,TxWx,2013-12-17 12:07:00,
2013-12-17 07:08:00,61.4,58.0,30.16,NW,316,2.5,2.5,89,0.00,,,0.00,TxWx,2013-12-17 12:08:00,
2013-12-17 07:09:00,61.5,59.0,30.15,NW,316,2.5,3.1,89,0.00,,,0.00,TxWx,2013-12-17 12:09:00,
2013-12-17 07:10:00,61.4,58.0,30.15,NW,316,4.3,4.3,89,0.00,,,0.00,TxWx,2013-12-17 12:10:00,
2013-12-17 07:11:00,61.4,58.0,30.15,WNW,294,3.1,3.1,89,0.00,,,0.00,TxWx,2013-12-17 12:11:00,
2013-12-17 07:12:00,61.6,59.0,30.16,NW,316,1.9,2.5,89,0.00,,,0.00,TxWx,2013-12-17 12:12:00,
2013-12-17 07:13:00,61.6,59.0,30.15,NW,316,3.1,3.1,89,0.00,,,0.00,TxWx,2013-12-17 12:13:00,
2013-12-17 07:14:00,61.7,59.0,30.15,NW,316,4.3,5.0,89,0.00,,,0.00,TxWx,2013-12-17 12:14:00,
2013-12-17 07:16:00,61.7,59.0,30.16,NW,316,1.9,3.1,89,0.00,,,0.00,TxWx,2013-12-17 12:16:00,
2013-12-17 07:17:00,61.6,59.0,30.16,NW,316,2.5,3.1,89,0.00,,,0.00,TxWx,2013-12-17 12:17:00,
2013-12-17 07:18:00,61.6,59.0,30.16,NW,316,2.5,2.5,89,0.00,,,0.00,TxWx,2013-12-17 12:18:00,
2013-12-17 07:19:00,61.5,59.0,30.16,NW,316,3.1,3.1,89,0.00,,,0.00,TxWx,2013-12-17 12:19:00,
2013-12-17 07:21:00,61.7,59.0,30.16,NW,316,2.5,2.5,89,0.00,,,0.00,TxWx,2013-12-17 12:21:00,
2013-12-17 07:22:00,61.6,59.0,30.16,NW,316,5.0,5.0,89,0.00,,,0.00,TxWx,2013-12-17 12:22:00,
2013-12-17 07:23:00,61.6,59.0,30.16,NW,316,3.1,3.1,89,0.00,,,0.00,TxWx,2013-12-17 12:23:00,
2013-12-17 07:24:00,61.7,59.0,30.16,NW,316,5.6,5.6,89,0.00,,,0.00,TxWx,2013-12-17 12:24:00,
2013-12-17 07:26:00,61.8,59.0,30.16,WNW,294,3.1,3.1,89,0.00,,,0.00,TxWx,2013-12-17 12:26:00,
2013-12-17 07:27:00,61.9,59.0,30.16,NNW,339,6.8,6.8,89,0.00,,,0.00,TxWx,2013-12-17 12:27:00,
2013-12-17 07:28:00,61.8,59.0,30.16,WNW,294,5.0,5.0,89,0.00,,,0.00,TxWx,2013-12-17 12:28:00,
2013-12-17 07:29:00,62.0,59.0,30.16,NW,316,2.5,2.5,89,0.00,,,0.00,TxWx,2013-12-17 12:29:00,
2013-12-17 07:30:00,62.1,59.0,30.16,NNW,339,3.1,3.1,89,0.00,,,0.00,TxWx,2013-12-17 12:30:00,
2013-12-17 07:31:00,62.1,59.0,30.16,WNW,294,2.5,2.5,89,0.00,,,0.00,TxWx,2013-12-17 12:31:00,
2013-12-17 07:32:00,62.1,59.0,30.16,NW,316,3.7,3.7,89,0.00,,,0.00,TxWx,2013-12-17 12:32:00,
2013-12-17 07:34:00,62.1,59.0,30.17,WNW,294,4.3,4.3,89,0.00,,,0.00,TxWx,2013-12-17 12:34:00,
2013-12-17 07:35:00,62.3,59.0,30.16,NW,316,2.5,2.5,89,0.00,,,0.00,TxWx,2013-12-17 12:35:00,
2013-12-17 07:37:00,62.3,59.0,30.17,NW,316,2.5,3.1,89,0.00,,,0.00,TxWx,2013-12-17 12:37:00,
2013-12-17 07:39:00,62.3,59.0,30.17,NW,316,4.3,4.3,89,0.00,,,0.00,TxWx,2013-12-17 12:39:00,
2013-12-17 07:40:00,62.3,59.0,30.17,NW,316,4.3,4.3,89,0.00,,,0.00,TxWx,2013-12-17 12:40:00,
2013-12-17 07:42:00,62.4,59.0,30.17,NW,316,3.1,3.7,89,0.00,,,0.00,TxWx,2013-12-17 12:42:00,
2013-12-17 07:43:00,62.4,59.0,30.17,NW,316,3.1,3.7,89,0.00,,,0.00,TxWx,2013-12-17 12:43:00,
2013-12-17 07:44:00,62.3,58.0,30.17,West,271,2.5,3.1,88,0.00,,,0.00,TxWx,2013-12-17 12:44:00,
2013-12-17 07:45:00,62.4,58.0,30.17,NW,316,3.7,3.7,88,0.00,,,0.00,TxWx,2013-12-17 12:45:00,
2013-12-17 07:48:00,62.5,59.0,30.17,NW,316,3.1,3.1,88,0.00,,,0.00,TxWx,2013-12-17 12:48:00,
2013-12-17 07:49:00,62.4,58.0,30.17,NW,316,5.0,5.0,88,0.00,,,0.00,TxWx,2013-12-17 12:49:00,
2013-12-17 07:50:00,62.4,58.0,30.17,WNW,294,2.5,2.5,88,0.00,,,0.00,TxWx,2013-12-17 12:50:00,
2013-12-17 07:53:00,62.5,59.0,30.17,NW,316,2.5,2.5,88,0.00,,,0.00,TxWx,2013-12-17 12:53:00,
2013-12-17 07:54:00,62.5,59.0,30.17,NW,316,2.5,2.5,88,0.00,,,0.00,TxWx,2013-12-17 12:54:00,
2013-12-17 07:56:00,62.5,58.0,30.17,NNW,339,3.1,3.1,88,0.00,,,0.00,TxWx,2013-12-17 12:56:00,
2013-12-17 07:58:00,62.5,59.0,30.17,NW,316,3.7,3.7,88,0.00,,,0.00,TxWx,2013-12-17 12:58:00,
2013-12-17 07:59:00,62.5,59.0,30.17,NNW,339,3.7,3.7,88,0.00,,,0.00,TxWx,2013-12-17 12:59:00,
2013-12-17 08:00:00,62.6,59.0,30.18,NW,316,1.9,3.1,88,0.00,,,0.00,TxWx,2013-12-17 13:00:00,
2013-12-17 08:01:00,62.6,59.0,30.18,NW,316,5.0,5.6,88,0.00,,,0.00,TxWx,2013-12-17 13:01:00,
2013-12-17 08:03:00,62.9,59.0,30.18,NW,316,3.1,3.1,88,0.00,,,0.00,TxWx,2013-12-17 13:03:00,
2013-12-17 08:04:00,62.8,59.0,30.17,WNW,294,1.9,1.9,88,0.00,,,0.00,TxWx,2013-12-17 13:04:00,
2013-12-17 08:05:00,62.8,59.0,30.17,NW,316,2.5,2.5,88,0.00,,,0.00,TxWx,2013-12-17 13:05:00,
2013-12-17 08:06:00,63.0,59.0,30.18,NW,316,1.9,1.9,88,0.00,,,0.00,TxWx,2013-12-17 13:06:00,
2013-12-17 08:09:00,63.2,59.0,30.17,NW,316,3.7,3.7,88,0.00,,,0.00,TxWx,2013-12-17 13:09:00,
2013-12-17 08:10:00,63.3,59.0,30.18,NW,316,2.5,3.1,88,0.00,,,0.00,TxWx,2013-12-17 13:10:00,
2013-12-17 08:11:00,63.4,59.0,30.17,NNW,339,3.7,3.7,88,0.00,,,0.00,TxWx,2013-12-17 13:11:00,
2013-12-17 08:12:00,63.5,60.0,30.17,North,1,3.1,3.7,88,0.00,,,0.00,TxWx,2013-12-17 13:12:00,
2013-12-17 08:14:00,63.6,60.0,30.18,NW,316,3.1,3.7,88,0.00,,,0.00,TxWx,2013-12-17 13:14:00,
2013-12-17 08:15:00,63.7,60.0,30.18,North,1,3.1,3.7,88,0.00,,,0.00,TxWx,2013-12-17 13:15:00,
2013-12-17 08:16:00,63.7,60.0,30.18,NNE,24,3.7,3.7,88,0.00,,,0.00,TxWx,2013-12-17 13:16:00,
2013-12-17 08:17:00,63.8,60.0,30.18,NNW,339,1.2,2.5,87,0.00,,,0.00,TxWx,2013-12-17 13:17:00,
2013-12-17 08:19:00,63.8,60.0,30.18,NW,316,3.1,3.1,87,0.00,,,0.00,TxWx,2013-12-17 13:19:00,
2013-12-17 08:20:00,63.9,60.0,30.18,NNW,339,3.1,3.1,87,0.00,,,0.00,TxWx,2013-12-17 13:20:00,
2013-12-17 08:21:00,63.9,60.0,30.18,NNW,339,2.5,2.5,87,0.00,,,0.00,TxWx,2013-12-17 13:21:00,
2013-12-17 08:23:00,64.0,60.0,30.18,NW,316,3.1,3.7,87,0.00,,,0.00,TxWx,2013-12-17 13:23:00,
2013-12-17 08:24:00,64.1,60.0,30.18,NNW,339,3.7,5.0,87,0.00,,,0.00,TxWx,2013-12-17 13:24:00,
2013-12-17 08:25:00,64.2,60.0,30.18,NNW,339,4.3,5.0,87,0.00,,,0.00,TxWx,2013-12-17 13:25:00,
2013-12-17 08:26:00,64.3,60.0,30.18,NNW,339,3.1,3.1,87,0.00,,,0.00,TxWx,2013-12-17 13:26:00,
2013-12-17 08:28:00,64.5,61.0,30.18,North,1,1.9,2.5,87,0.00,,,0.00,TxWx,2013-12-17 13:28:00,
2013-12-17 08:29:00,64.6,61.0,30.18,NNW,339,2.5,2.5,87,0.00,,,0.00,TxWx,2013-12-17 13:29:00,
2013-12-17 08:30:00,64.7,61.0,30.18,NNW,339,4.3,4.3,87,0.00,,,0.00,TxWx,2013-12-17 13:30:00,
2013-12-17 08:31:00,64.7,61.0,30.18,NW,316,1.9,1.9,86,0.00,,,0.00,TxWx,2013-12-17 13:31:00,
2013-12-17 08:32:00,64.8,61.0,30.18,NNW,339,2.5,3.7,86,0.00,,,0.00,TxWx,2013-12-17 13:32:00,
2013-12-17 08:33:00,64.8,61.0,30.18,NW,316,3.1,3.1,86,0.00,,,0.00,TxWx,2013-12-17 13:33:00,
2013-12-17 08:34:00,64.7,61.0,30.18,NNW,339,4.3,4.3,86,0.00,,,0.00,TxWx,2013-12-17 13:34:00,
2013-12-17 08:36:00,64.8,61.0,30.18,North,1,3.7,3.7,86,0.00,,,0.00,TxWx,2013-12-17 13:36:00,
2013-12-17 08:38:00,65.0,61.0,30.19,North,1,1.9,2.5,86,0.00,,,0.00,TxWx,2013-12-17 13:38:00,
2013-12-17 08:40:00,65.3,61.0,30.19,NNW,339,1.9,1.9,86,0.00,,,0.00,TxWx,2013-12-17 13:40:00,
2013-12-17 08:41:00,65.4,60.0,30.19,NW,316,3.1,3.7,85,0.00,,,0.00,TxWx,2013-12-17 13:41:00,
2013-12-17 08:42:00,65.4,60.0,30.18,NW,316,1.9,1.9,85,0.00,,,0.00,TxWx,2013-12-17 13:42:00,
2013-12-17 08:43:00,65.5,61.0,30.19,NW,316,4.3,4.3,85,0.00,,,0.00,TxWx,2013-12-17 13:43:00,
2013-12-17 08:45:00,65.6,61.0,30.18,NW,316,4.3,4.3,85,0.00,,,0.00,TxWx,2013-12-17 13:45:00,
2013-12-17 08:47:00,65.8,61.0,30.18,North,1,3.7,5.0,85,0.00,,,0.00,TxWx,2013-12-17 13:47:00,
2013-12-17 08:48:00,66.0,61.0,30.18,NE,46,3.1,3.1,84,0.00,,,0.00,TxWx,2013-12-17 13:48:00,
2013-12-17 08:49:00,66.2,61.0,30.18,North,1,5.0,5.0,84,0.00,,,0.00,TxWx,2013-12-17 13:49:00,
2013-12-17 08:50:00,66.2,61.0,30.18,NNW,339,5.0,6.2,84,0.00,,,0.00,TxWx,2013-12-17 13:50:00,
2013-12-17 08:53:00,66.4,61.0,30.18,NNE,24,4.3,4.3,84,0.00,,,0.00,TxWx,2013-12-17 13:53:00,
2013-12-17 08:54:00,66.4,61.0,30.18,NNE,24,5.0,5.0,83,0.00,,,0.00,TxWx,2013-12-17 13:54:00,
2013-12-17 08:55:00,66.5,61.0,30.19,North,1,5.0,5.6,83,0.00,,,0.00,TxWx,2013-12-17 13:55:00,
2013-12-17 08:56:00,66.6,61.0,30.19,NNW,339,2.5,3.1,83,0.00,,,0.00,TxWx,2013-12-17 13:56:00,
2013-12-17 08:58:00,66.7,61.0,30.19,NNW,339,3.7,3.7,82,0.00,,,0.00,TxWx,2013-12-17 13:58:00,
2013-12-17 08:59:00,66.7,61.0,30.19,North,1,5.0,5.0,82,0.00,,,0.00,TxWx,2013-12-17 13:59:00,
2013-12-17 09:00:00,66.8,61.0,30.19,North,1,3.1,3.7,82,0.00,,,0.00,TxWx,2013-12-17 14:00:00,
2013-12-17 09:01:00,66.9,61.0,30.19,NW,316,3.1,3.1,82,0.00,,,0.00,TxWx,2013-12-17 14:01:00,
2013-12-17 09:03:00,67.0,61.0,30.19,NNW,339,5.0,5.0,82,0.00,,,0.00,TxWx,2013-12-17 14:03:00,
2013-12-17 09:04:00,67.1,61.0,30.19,NW,316,3.1,3.1,82,0.00,,,0.00,TxWx,2013-12-17 14:04:00,
2013-12-17 09:05:00,67.2,61.0,30.19,North,1,3.7,3.7,82,0.00,,,0.00,TxWx,2013-12-17 14:05:00,
2013-12-17 09:06:00,67.1,61.0,30.19,NNW,339,3.7,3.7,81,0.00,,,0.00,TxWx,2013-12-17 14:06:00,
2013-12-17 09:07:00,67.3,61.0,30.19,NW,316,3.7,3.7,81,0.00,,,0.00,TxWx,2013-12-17 14:07:00,
2013-12-17 09:09:00,67.5,61.0,30.19,NNW,339,4.3,5.0,81,0.00,,,0.00,TxWx,2013-12-17 14:09:00,
2013-12-17 09:10:00,67.7,62.0,30.19,NNW,339,3.7,3.7,81,0.00,,,0.00,TxWx,2013-12-17 14:10:00,
2013-12-17 09:11:00,67.9,62.0,30.19,North,1,5.6,5.6,81,0.00,,,0.00,TxWx,2013-12-17 14:11:00,
2013-12-17 09:12:00,68.0,62.0,30.19,North,1,5.0,5.0,81,0.00,,,0.00,TxWx,2013-12-17 14:12:00,
2013-12-17 09:14:00,68.1,62.0,30.19,NNW,339,3.7,3.7,80,0.00,,,0.00,TxWx,2013-12-17 14:14:00,
2013-12-17 09:15:00,68.3,62.0,30.19,North,1,3.1,3.1,80,0.00,,,0.00,TxWx,2013-12-17 14:15:00,
2013-12-17 09:17:00,68.5,62.0,30.19,NW,316,2.5,2.5,80,0.00,,,0.00,TxWx,2013-12-17 14:17:00,
2013-12-17 09:19:00,68.7,62.0,30.19,NE,46,1.9,1.9,79,0.00,,,0.00,TxWx,2013-12-17 14:19:00,
2013-12-17 09:20:00,68.8,62.0,30.19,NNW,339,3.7,3.7,79,0.00,,,0.00,TxWx,2013-12-17 14:20:00,
2013-12-17 09:21:00,69.0,62.0,30.19,North,1,3.7,3.7,79,0.00,,,0.00,TxWx,2013-12-17 14:21:00,
2013-12-17 09:22:00,68.9,62.0,30.19,NW,316,3.1,3.7,79,0.00,,,0.00,TxWx,2013-12-17 14:22:00,
2013-12-17 09:24:00,68.9,62.0,30.19,NNW,339,2.5,2.5,78,0.00,,,0.00,TxWx,2013-12-17 14:24:00,
2013-12-17 09:25:00,69.0,62.0,30.19,NW,316,3.7,3.7,78,0.00,,,0.00,TxWx,2013-12-17 14:25:00,
2013-12-17 09:26:00,69.1,62.0,30.19,NNW,339,2.5,3.1,78,0.00,,,0.00,TxWx,2013-12-17 14:26:00,
2013-12-17 09:27:00,69.0,62.0,30.19,NNW,339,2.5,3.1,78,0.00,,,0.00,TxWx,2013-12-17 14:27:00,
2013-12-17 09:29:00,69.3,62.0,30.19,NW,316,3.1,3.7,78,0.00,,,0.00,TxWx,2013-12-17 14:29:00,
2013-12-17 09:30:00,69.3,62.0,30.19,WNW,294,5.6,5.6,78,0.00,,,0.00,TxWx,2013-12-17 14:30:00,
2013-12-17 09:31:00,69.1,61.0,30.19,NW,316,4.3,4.3,77,0.00,,,0.00,TxWx,2013-12-17 14:31:00,
2013-12-17 09:32:00,69.1,61.0,30.19,North,1,3.1,3.1,77,0.00,,,0.00,TxWx,2013-12-17 14:32:00,
2013-12-17 09:34:00,69.4,61.0,30.20,NNE,24,2.5,3.1,77,0.00,,,0.00,TxWx,2013-12-17 14:34:00,
2013-12-17 09:36:00,69.4,61.0,30.19,NNW,339,2.5,2.5,77,0.00,,,0.00,TxWx,2013-12-17 14:36:00,
2013-12-17 09:37:00,69.5,62.0,30.19,North,1,3.1,3.1,77,0.00,,,0.00,TxWx,2013-12-17 14:37:00,
2013-12-17 09:40:00,69.9,62.0,30.19,NNW,339,5.0,5.0,77,0.00,,,0.00,TxWx,2013-12-17 14:40:00,
2013-12-17 09:41:00,70.1,62.0,30.20,North,1,1.9,1.9,77,0.00,,,0.00,TxWx,2013-12-17 14:41:00,
2013-12-17 09:42:00,70.3,62.0,30.29,North,1,1.9,3.1,76,0.00,,,0.00,TxWx,2013-12-17 14:42:00,
2013-12-17 09:45:00,70.9,63.0,30.20,NNW,339,1.2,1.9,75,0.00,,,0.00,TxWx,2013-12-17 14:45:00,
2013-12-17 09:47:00,71.1,63.0,30.20,East,91,3.1,3.1,75,0.00,,,0.00,TxWx,2013-12-17 14:47:00,
2013-12-17 09:48:00,71.5,63.0,30.20,North,1,2.5,2.5,75,0.00,,,0.00,TxWx,2013-12-17 14:48:00,
2013-12-17 09:50:00,72.5,63.0,30.20,NE,46,7.4,9.3,71,0.00,,,0.00,TxWx,2013-12-17 14:50:00,
2013-12-17 09:52:00,72.8,62.0,30.20,NNW,339,4.3,5.0,69,0.00,,,0.00,TxWx,2013-12-17 14:52:00,
2013-12-17 09:53:00,72.8,62.0,30.20,NNE,24,8.0,8.7,69,0.00,,,0.00,TxWx,2013-12-17 14:53:00,
2013-12-17 09:56:00,73.0,61.0,30.20,ENE,69,8.0,8.0,67,0.00,,,0.00,TxWx,2013-12-17 14:56:00,
2013-12-17 09:57:00,72.9,61.0,30.27,NNE,24,4.3,4.3,66,0.00,,,0.00,TxWx,2013-12-17 14:57:00,
2013-12-17 09:58:00,73.0,61.0,30.20,ENE,69,4.3,4.3,66,0.00,,,0.00,TxWx,2013-12-17 14:58:00,
2013-12-17 10:02:00,72.9,60.0,30.20,NE,46,8.7,9.3,64,0.00,,,0.00,TxWx,2013-12-17 15:02:00,
2013-12-17 10:03:00,73.2,60.0,30.20,NNE,24,7.4,7.4,64,0.00,,,0.00,TxWx,2013-12-17 15:03:00,
2013-12-17 10:04:00,73.3,60.0,30.20,NE,46,5.0,6.2,65,0.00,,,0.00,TxWx,2013-12-17 15:04:00,
2013-12-17 10:07:00,73.2,60.0,30.19,East,91,3.1,3.1,64,0.00,,,0.00,TxWx,2013-12-17 15:07:00,
2013-12-17 10:08:00,73.3,60.0,30.19,North,1,5.6,5.6,64,0.00,,,0.00,TxWx,2013-12-17 15:08:00,
2013-12-17 10:09:00,73.4,60.0,30.19,NNE,24,7.4,8.7,64,0.00,,,0.00,TxWx,2013-12-17 15:09:00,
2013-12-17 10:10:00,73.6,61.0,30.20,NW,316,3.7,3.7,65,0.00,,,0.00,TxWx,2013-12-17 15:10:00,
2013-12-17 10:12:00,73.9,61.0,30.19,NNE,24,8.7,8.7,64,0.00,,,0.00,TxWx,2013-12-17 15:12:00,
2013-12-17 10:13:00,74.0,61.0,30.19,East,91,6.2,8.0,63,0.00,,,0.00,TxWx,2013-12-17 15:13:00,
2013-12-17 10:14:00,74.2,61.0,30.19,East,91,4.3,4.3,63,0.00,,,0.00,TxWx,2013-12-17 15:14:00,
2013-12-17 10:15:00,74.4,61.0,30.20,NNW,339,2.5,3.1,64,0.00,,,0.00,TxWx,2013-12-17 15:15:00,
2013-12-17 10:18:00,74.6,62.0,30.20,NNE,24,7.4,8.0,64,0.00,,,0.00,TxWx,2013-12-17 15:18:00,
2013-12-17 10:19:00,74.5,61.0,30.20,North,1,6.2,6.2,62,0.00,,,0.00,TxWx,2013-12-17 15:19:00,
2013-12-17 10:21:00,74.3,60.0,30.20,ENE,69,3.1,3.7,61,0.00,,,0.00,TxWx,2013-12-17 15:21:00,
2013-12-17 10:23:00,74.4,60.0,30.19,NNE,24,8.7,8.7,62,0.00,,,0.00,TxWx,2013-12-17 15:23:00,
2013-12-17 10:24:00,74.5,61.0,30.20,NNE,24,4.3,4.3,62,0.00,,,0.00,TxWx,2013-12-17 15:24:00,
2013-12-17 10:26:00,74.7,61.0,30.19,NW,316,3.7,5.0,61,0.00,,,0.00,TxWx,2013-12-17 15:26:00,
2013-12-17 10:28:00,74.5,61.0,30.20,NNW,339,5.0,5.0,62,0.00,,,0.00,TxWx,2013-12-17 15:28:00,
2013-12-17 10:29:00,74.6,61.0,30.19,NNW,339,1.9,2.5,61,0.00,,,0.00,TxWx,2013-12-17 15:29:00,
2013-12-17 10:30:00,74.5,60.0,30.19,NNW,339,6.2,6.2,62,0.00,,,0.00,TxWx,2013-12-17 15:30:00,
2013-12-17 10:31:00,74.2,60.0,30.19,NNE,24,7.4,9.3,61,0.00,,,0.00,TxWx,2013-12-17 15:31:00,
2013-12-17 10:33:00,74.3,60.0,30.19,North,1,8.7,9.3,62,0.00,,,0.00,TxWx,2013-12-17 15:33:00,
2013-12-17 10:34:00,74.3,59.0,30.19,NNE,24,5.6,6.2,61,0.00,,,0.00,TxWx,2013-12-17 15:34:00,
2013-12-17 10:36:00,74.6,60.0,30.19,NNE,24,5.6,5.6,61,0.00,,,0.00,TxWx,2013-12-17 15:36:00,
2013-12-17 10:38:00,74.7,60.0,30.19,WNW,294,3.7,3.7,61,0.00,,,0.00,TxWx,2013-12-17 15:38:00,
2013-12-17 10:39:00,74.5,60.0,30.19,NNE,24,6.2,6.8,60,0.00,,,0.00,TxWx,2013-12-17 15:39:00,
2013-12-17 10:40:00,74.5,60.0,30.19,ENE,69,7.4,7.4,61,0.00,,,0.00,TxWx,2013-12-17 15:40:00,
2013-12-17 10:41:00,74.5,59.0,30.19,ENE,69,5.6,5.6,60,0.00,,,0.00,TxWx,2013-12-17 15:41:00,
2013-12-17 10:42:00,74.5,60.0,30.19,NE,46,8.0,8.0,61,0.00,,,0.00,TxWx,2013-12-17 15:42:00,
2013-12-17 10:43:00,74.5,59.0,30.19,NNE,24,8.0,8.0,61,0.00,,,0.00,TxWx,2013-12-17 15:43:00,
2013-12-17 10:44:00,74.3,59.0,30.19,NE,46,8.0,8.0,59,0.00,,,0.00,TxWx,2013-12-17 15:44:00,
2013-12-17 10:45:00,74.5,60.0,30.19,North,1,5.0,5.0,60,0.00,,,0.00,TxWx,2013-12-17 15:45:00,
2013-12-17 10:46:00,74.3,59.0,30.19,NNE,24,9.9,13.0,60,0.00,,,0.00,TxWx,2013-12-17 15:46:00,
2013-12-17 10:47:00,74.4,59.0,30.19,NNE,24,8.0,8.0,60,0.00,,,0.00,TxWx,2013-12-17 15:47:00,
2013-12-17 10:48:00,74.5,59.0,30.19,NNE,24,3.7,5.0,60,0.00,,,0.00,TxWx,2013-12-17 15:48:00,
2013-12-17 10:49:00,74.5,60.0,30.19,NNE,24,4.3,5.0,60,0.00,,,0.00,TxWx,2013-12-17 15:49:00,
2013-12-17 10:52:00,74.8,60.0,30.19,NE,46,6.2,6.2,60,0.00,,,0.00,TxWx,2013-12-17 15:52:00,
2013-12-17 10:53:00,74.6,60.0,30.19,NE,46,8.7,8.7,59,0.00,,,0.00,TxWx,2013-12-17 15:53:00,
2013-12-17 10:55:00,74.7,59.0,30.19,ENE,69,3.7,3.7,59,0.00,,,0.00,TxWx,2013-12-17 15:55:00,
2013-12-17 10:57:00,74.7,60.0,30.19,North,1,8.0,8.7,60,0.00,,,0.00,TxWx,2013-12-17 15:57:00,
2013-12-17 10:59:00,74.7,60.0,30.18,ENE,69,4.3,4.3,59,0.00,,,0.00,TxWx,2013-12-17 15:59:00,
2013-12-17 11:00:00,74.7,60.0,30.18,NE,46,9.9,9.9,59,0.00,,,0.00,TxWx,2013-12-17 16:00:00,
2013-12-17 11:02:00,75.0,60.0,30.18,East,91,4.3,4.3,60,0.00,,,0.00,TxWx,2013-12-17 16:02:00,
2013-12-17 11:03:00,75.0,60.0,30.18,North,1,6.8,6.8,60,0.00,,,0.00,TxWx,2013-12-17 16:03:00,
2013-12-17 11:04:00,74.9,60.0,30.18,NNE,24,6.8,6.8,60,0.00,,,0.00,TxWx,2013-12-17 16:04:00,
2013-12-17 11:05:00,74.8,60.0,30.18,East,91,5.6,5.6,59,0.00,,,0.00,TxWx,2013-12-17 16:05:00,
2013-12-17 11:06:00,74.9,60.0,30.18,NNE,24,3.7,3.7,60,0.00,,,0.00,TxWx,2013-12-17 16:06:00,
2013-12-17 11:07:00,74.5,59.0,30.18,NE,46,9.9,10.5,59,0.00,,,0.00,TxWx,2013-12-17 16:07:00,
2013-12-17 11:08:00,74.7,59.0,30.18,NE,46,3.1,3.1,59,0.00,,,0.00,TxWx,2013-12-17 16:08:00,
2013-12-17 11:09:00,74.8,60.0,30.18,NNE,24,6.2,6.2,59,0.00,,,0.00,TxWx,2013-12-17 16:09:00,
2013-12-17 11:10:00,74.7,60.0,30.18,NNW,339,7.4,7.4,59,0.00,,,0.00,TxWx,2013-12-17 16:10:00,
2013-12-17 11:11:00,74.7,59.0,30.18,NNW,339,6.2,10.5,59,0.00,,,0.00,TxWx,2013-12-17 16:11:00,
2013-12-17 11:13:00,74.4,58.0,30.18,NE,46,12.4,12.4,59,0.00,,,0.00,TxWx,2013-12-17 16:13:00,
2013-12-17 11:14:00,74.5,59.0,30.18,ESE,114,9.9,9.9,58,0.00,,,0.00,TxWx,2013-12-17 16:14:00,
2013-12-17 11:16:00,74.7,60.0,30.18,NE,46,5.0,6.2,59,0.00,,,0.00,TxWx,2013-12-17 16:16:00,
2013-12-17 11:18:00,74.7,59.0,30.18,NE,46,7.4,7.4,58,0.00,,,0.00,TxWx,2013-12-17 16:18:00,
2013-12-17 11:19:00,74.8,60.0,30.18,ENE,69,10.5,10.5,59,0.00,,,0.00,TxWx,2013-12-17 16:19:00,
2013-12-17 11:21:00,75.0,60.0,30.18,NW,316,4.3,4.3,61,0.00,,,0.00,TxWx,2013-12-17 16:21:00,
2013-12-17 11:22:00,74.9,60.0,30.18,NNE,24,7.4,7.4,60,0.00,,,0.00,TxWx,2013-12-17 16:22:00,
2013-12-17 11:23:00,74.9,60.0,30.18,NNE,24,4.3,5.6,60,0.00,,,0.00,TxWx,2013-12-17 16:23:00,
2013-12-17 11:24:00,75.1,60.0,30.18,ENE,69,5.6,5.6,60,0.00,,,0.00,TxWx,2013-12-17 16:24:00,
2013-12-17 11:27:00,74.6,59.0,30.18,East,91,6.2,7.4,58,0.00,,,0.00,TxWx,2013-12-17 16:27:00,
2013-12-17 11:28:00,75.0,60.0,30.18,NE,46,4.3,8.0,59,0.00,,,0.00,TxWx,2013-12-17 16:28:00,
2013-12-17 11:29:00,74.9,59.0,30.18,NE,46,5.0,5.0,59,0.00,,,0.00,TxWx,2013-12-17 16:29:00,
2013-12-17 11:30:00,74.9,59.0,30.18,ESE,114,6.2,7.4,59,0.00,,,0.00,TxWx,2013-12-17 16:30:00,
2013-12-17 11:32:00,75.2,60.0,30.18,East,91,7.4,8.0,59,0.00,,,0.00,TxWx,2013-12-17 16:32:00,
2013-12-17 11:33:00,75.2,60.0,30.17,NE,46,6.2,6.2,59,0.00,,,0.00,TxWx,2013-12-17 16:33:00,
2013-12-17 11:34:00,75.2,60.0,30.17,ENE,69,6.2,7.4,59,0.00,,,0.00,TxWx,2013-12-17 16:34:00,
2013-12-17 11:35:00,75.1,60.0,30.17,East,91,6.8,6.8,59,0.00,,,0.00,TxWx,2013-12-17 16:35:00,
2013-12-17 11:38:00,74.5,58.0,30.17,NE,46,10.5,11.1,57,0.00,,,0.00,TxWx,2013-12-17 16:38:00,
2013-12-17 11:39:00,74.7,59.0,30.17,ENE,69,4.3,5.0,58,0.00,,,0.00,TxWx,2013-12-17 16:39:00,
2013-12-17 11:40:00,74.6,59.0,30.17,NE,46,5.6,5.6,57,0.00,,,0.00,TxWx,2013-12-17 16:40:00,
2013-12-17 11:43:00,74.7,60.0,30.17,NNE,24,8.0,8.0,59,0.00,,,0.00,TxWx,2013-12-17 16:43:00,
2013-12-17 11:44:00,74.8,59.0,30.17,NNE,24,3.1,3.1,59,0.00,,,0.00,TxWx,2013-12-17 16:44:00,
2013-12-17 11:45:00,74.9,60.0,30.17,ENE,69,7.4,8.0,60,0.00,,,0.00,TxWx,2013-12-17 16:45:00,
2013-12-17 11:48:00,75.0,60.0,30.17,East,91,6.2,7.4,59,0.00,,,0.00,TxWx,2013-12-17 16:48:00,
2013-12-17 11:49:00,74.8,59.0,30.17,ENE,69,6.8,7.4,58,0.00,,,0.00,TxWx,2013-12-17 16:49:00,
2013-12-17 11:50:00,74.9,59.0,30.17,NE,46,7.4,11.8,59,0.00,,,0.00,TxWx,2013-12-17 16:50:00,
2013-12-17 11:53:00,74.5,59.0,30.17,NE,46,9.9,9.9,57,0.00,,,0.00,TxWx,2013-12-17 16:53:00,
2013-12-17 11:54:00,74.6,59.0,30.17,ENE,69,6.2,6.2,58,0.00,,,0.00,TxWx,2013-12-17 16:54:00,
2013-12-17 11:55:00,74.7,59.0,30.17,ENE,69,4.3,5.0,57,0.00,,,0.00,TxWx,2013-12-17 16:55:00,
2013-12-17 11:59:00,74.6,60.0,30.16,ESE,114,3.1,3.1,59,0.00,,,0.00,TxWx,2013-12-17 16:59:00,
2013-12-17 12:00:00,74.3,58.0,30.16,NE,46,6.8,6.8,57,0.00,,,0.00,TxWx,2013-12-17 17:00:00,
2013-12-17 12:04:00,74.9,59.0,30.16,NNE,24,3.7,4.3,58,0.00,,,0.00,TxWx,2013-12-17 17:04:00,
2013-12-17 12:05:00,74.8,59.0,30.16,NE,46,5.0,5.0,57,0.00,,,0.00,TxWx,2013-12-17 17:05:00,
2013-12-17 12:06:00,74.8,59.0,30.16,NE,46,9.9,9.9,57,0.00,,,0.00,TxWx,2013-12-17 17:06:00,
2013-12-17 12:09:00,74.6,58.0,30.16,ENE,69,5.0,5.0,57,0.00,,,0.00,TxWx,2013-12-17 17:09:00,
2013-12-17 12:10:00,75.0,59.0,30.16,ENE,69,6.2,7.4,59,0.00,,,0.00,TxWx,2013-12-17 17:10:00,
2013-12-17 12:11:00,75.0,60.0,30.16,ENE,69,2.5,2.5,59,0.00,,,0.00,TxWx,2013-12-17 17:11:00,
2013-12-17 12:12:00,75.1,60.0,30.16,NNW,339,2.5,2.5,59,0.00,,,0.00,TxWx,2013-12-17 17:12:00,
2013-12-17 12:15:00,74.9,59.0,30.15,East,91,3.1,3.1,58,0.00,,,0.00,TxWx,2013-12-17 17:15:00,
2013-12-17 12:16:00,74.8,59.0,30.15,North,1,5.0,5.0,58,0.00,,,0.00,TxWx,2013-12-17 17:16:00,
2013-12-17 12:17:00,74.8,59.0,30.15,NE,46,6.8,7.4,57,0.00,,,0.00,TxWx,2013-12-17 17:17:00,
2013-12-17 12:20:00,74.9,59.0,30.15,North,1,3.7,4.3,58,0.00,,,0.00,TxWx,2013-12-17 17:20:00,
2013-12-17 12:21:00,74.7,59.0,30.15,ENE,69,7.4,7.4,58,0.00,,,0.00,TxWx,2013-12-17 17:21:00,
2013-12-17 12:22:00,74.8,59.0,30.15,NNE,24,6.2,8.7,58,0.00,,,0.00,TxWx,2013-12-17 17:22:00,
2013-12-17 12:25:00,74.6,59.0,30.15,NNE,24,8.7,9.3,58,0.00,,,0.00,TxWx,2013-12-17 17:25:00,
2013-12-17 12:26:00,74.7,59.0,30.15,East,91,2.5,3.1,58,0.00,,,0.00,TxWx,2013-12-17 17:26:00,
2013-12-17 12:27:00,75.0,59.0,30.15,ENE,69,3.1,3.1,59,0.00,,,0.00,TxWx,2013-12-17 17:27:00,
2013-12-17 12:31:00,74.8,59.0,30.14,NE,46,6.2,6.2,57,0.00,,,0.00,TxWx,2013-12-17 17:31:00,
2013-12-17 12:32:00,75.2,59.0,30.14,NE,46,6.2,6.8,59,0.00,,,0.00,TxWx,2013-12-17 17:32:00,
2013-12-17 12:36:00,75.2,60.0,30.14,NE,46,8.7,8.7,61,0.00,,,0.00,TxWx,2013-12-17 17:36:00,
2013-12-17 12:37:00,75.2,60.0,30.14,NE,46,6.2,6.2,60,0.00,,,0.00,TxWx,2013-12-17 17:37:00,
2013-12-17 12:38:00,75.1,60.0,30.14,East,91,5.0,6.2,60,0.00,,,0.00,TxWx,2013-12-17 17:38:00,
2013-12-17 12:42:00,75.2,60.0,30.14,NE,46,5.0,5.6,60,0.00,,,0.00,TxWx,2013-12-17 17:42:00,
2013-12-17 12:44:00,74.9,60.0,30.14,ENE,69,8.7,9.3,59,0.00,,,0.00,TxWx,2013-12-17 17:44:00,
2013-12-17 12:47:00,74.8,59.0,30.14,NE,46,6.2,6.2,59,0.00,,,0.00,TxWx,2013-12-17 17:47:00,
2013-12-17 12:48:00,74.9,60.0,30.13,ENE,69,6.8,6.8,59,0.00,,,0.00,TxWx,2013-12-17 17:48:00,
2013-12-17 12:49:00,74.7,59.0,30.14,NNE,24,3.7,3.7,58,0.00,,,0.00,TxWx,2013-12-17 17:49:00,
2013-12-17 12:52:00,74.7,59.0,30.13,NE,46,6.2,6.2,59,0.00,,,0.00,TxWx,2013-12-17 17:52:00,
2013-12-17 12:53:00,74.7,59.0,30.13,NNE,24,6.8,8.7,59,0.00,,,0.00,TxWx,2013-12-17 17:53:00,
2013-12-17 12:54:00,74.6,59.0,30.13,NE,46,5.0,5.6,58,0.00,,,0.00,TxWx,2013-12-17 17:54:00,
2013-12-17 12:55:00,74.7,59.0,30.13,NE,46,5.6,5.6,58,0.00,,,0.00,TxWx,2013-12-17 17:55:00,
2013-12-17 12:57:00,74.8,60.0,30.13,NE,46,7.4,7.4,60,0.00,,,0.00,TxWx,2013-12-17 17:57:00,
2013-12-17 12:58:00,74.8,60.0,30.13,ENE,69,3.7,3.7,60,0.00,,,0.00,TxWx,2013-12-17 17:58:00,
2013-12-17 12:59:00,74.5,59.0,30.13,NE,46,7.4,7.4,58,0.00,,,0.00,TxWx,2013-12-17 17:59:00,
2013-12-17 13:00:00,74.7,59.0,30.13,NE,46,8.7,8.7,58,0.00,,,0.00,TxWx,2013-12-17 18:00:00,
2013-12-17 13:02:00,74.9,60.0,30.13,East,91,6.2,6.8,60,0.00,,,0.00,TxWx,2013-12-17 18:02:00,
2013-12-17 13:03:00,74.8,60.0,30.13,ENE,69,5.0,5.0,60,0.00,,,0.00,TxWx,2013-12-17 18:03:00,
2013-12-17 13:04:00,74.5,60.0,30.13,ENE,69,6.2,6.8,60,0.00,,,0.00,TxWx,2013-12-17 18:04:00,
2013-12-17 13:05:00,74.0,58.0,30.13,NE,46,11.1,11.8,58,0.00,,,0.00,TxWx,2013-12-17 18:05:00,
2013-12-17 13:07:00,74.4,58.0,30.12,NNE,24,6.8,7.4,59,0.00,,,0.00,TxWx,2013-12-17 18:07:00,
2013-12-17 13:08:00,74.2,58.0,30.12,ENE,69,8.0,8.0,58,0.00,,,0.00,TxWx,2013-12-17 18:08:00,
2013-12-17 13:09:00,74.3,58.0,30.12,NNE,24,9.3,10.5,58,0.00,,,0.00,TxWx,2013-12-17 18:09:00,
2013-12-17 13:10:00,74.1,58.0,30.13,ENE,69,9.3,9.3,58,0.00,,,0.00,TxWx,2013-12-17 18:10:00,
2013-12-17 13:11:00,74.4,59.0,30.13,NNE,24,6.2,6.2,59,0.00,,,0.00,TxWx,2013-12-17 18:11:00,
2013-12-17 13:13:00,74.5,59.0,30.13,ENE,69,4.3,4.3,58,0.00,,,0.00,TxWx,2013-12-17 18:13:00,
2013-12-17 13:14:00,74.3,58.0,30.12,NNE,24,8.7,9.3,57,0.00,,,0.00,TxWx,2013-12-17 18:14:00,
2013-12-17 13:15:00,74.2,58.0,30.12,ENE,69,8.7,9.9,57,0.00,,,0.00,TxWx,2013-12-17 18:15:00,
2013-12-17 13:16:00,74.3,58.0,30.12,ENE,69,5.6,5.6,57,0.00,,,0.00,TxWx,2013-12-17 18:16:00,
2013-12-17 13:19:00,74.6,59.0,30.12,NE,46,8.0,8.0,57,0.00,,,0.00,TxWx,2013-12-17 18:19:00,
2013-12-17 13:20:00,74.4,57.0,30.12,NE,46,4.3,5.6,56,0.00,,,0.00,TxWx,2013-12-17 18:20:00,
2013-12-17 13:21:00,74.7,59.0,30.12,NE,46,5.6,5.6,57,0.00,,,0.00,TxWx,2013-12-17 18:21:00,
2013-12-17 13:24:00,74.7,59.0,30.12,East,91,7.4,7.4,58,0.00,,,0.00,TxWx,2013-12-17 18:24:00,
2013-12-17 13:25:00,74.9,59.0,30.12,NE,46,3.7,3.7,58,0.00,,,0.00,TxWx,2013-12-17 18:25:00,
2013-12-17 13:26:00,75.0,59.0,30.12,NNE,24,5.6,7.4,58,0.00,,,0.00,TxWx,2013-12-17 18:26:00,
2013-12-17 13:29:00,74.6,59.0,30.12,ENE,69,5.6,5.6,57,0.00,,,0.00,TxWx,2013-12-17 18:29:00,
2013-12-17 13:31:00,74.9,59.0,30.12,East,91,3.7,3.7,58,0.00,,,0.00,TxWx,2013-12-17 18:31:00,
2013-12-17 13:33:00,74.6,59.0,30.12,ENE,69,6.8,6.8,58,0.00,,,0.00,TxWx,2013-12-17 18:33:00,
2013-12-17 13:34:00,74.7,59.0,30.12,North,1,5.0,5.0,58,0.00,,,0.00,TxWx,2013-12-17 18:34:00,
2013-12-17 13:35:00,74.9,59.0,30.12,NE,46,4.3,5.6,57,0.00,,,0.00,TxWx,2013-12-17 18:35:00,
2013-12-17 13:36:00,75.0,59.0,30.12,NNW,339,3.7,4.3,57,0.00,,,0.00,TxWx,2013-12-17 18:36:00,
2013-12-17 13:39:00,74.6,58.0,30.12,East,91,6.2,8.7,56,0.00,,,0.00,TxWx,2013-12-17 18:39:00,
2013-12-17 13:40:00,74.7,58.0,30.12,ENE,69,5.6,5.6,57,0.00,,,0.00,TxWx,2013-12-17 18:40:00,
2013-12-17 13:41:00,74.3,57.0,30.12,ENE,69,9.3,9.3,56,0.00,,,0.00,TxWx,2013-12-17 18:41:00,
2013-12-17 13:42:00,74.4,57.0,30.12,NE,46,10.5,10.5,56,0.00,,,0.00,TxWx,2013-12-17 18:42:00,
2013-12-17 13:44:00,74.5,59.0,30.12,ENE,69,9.3,10.5,57,0.00,,,0.00,TxWx,2013-12-17 18:44:00,
2013-12-17 13:45:00,74.3,57.0,30.12,NNE,24,5.6,5.6,56,0.00,,,0.00,TxWx,2013-12-17 18:45:00,
2013-12-17 13:46:00,74.2,58.0,30.12,ENE,69,3.7,3.7,57,0.00,,,0.00,TxWx,2013-12-17 18:46:00,
2013-12-17 13:47:00,74.4,58.0,30.12,ENE,69,8.7,9.3,57,0.00,,,0.00,TxWx,2013-12-17 18:47:00,
2013-12-17 13:49:00,74.5,59.0,30.12,NE,46,4.3,4.3,58,0.00,,,0.00,TxWx,2013-12-17 18:49:00,
2013-12-17 13:50:00,74.6,59.0,30.12,North,1,5.0,5.0,57,0.00,,,0.00,TxWx,2013-12-17 18:50:00,
2013-12-17 13:51:00,74.3,58.0,30.12,North,1,5.6,6.8,57,0.00,,,0.00,TxWx,2013-12-17 18:51:00,
2013-12-17 13:52:00,74.5,58.0,30.12,NW,316,6.2,6.2,58,0.00,,,0.00,TxWx,2013-12-17 18:52:00,
2013-12-17 13:54:00,74.6,59.0,30.12,East,91,5.6,9.3,57,0.00,,,0.00,TxWx,2013-12-17 18:54:00,
2013-12-17 13:55:00,74.7,59.0,30.12,ENE,69,7.4,7.4,58,0.00,,,0.00,TxWx,2013-12-17 18:55:00,
2013-12-17 13:56:00,74.8,59.0,30.12,NE,46,3.7,3.7,59,0.00,,,0.00,TxWx,2013-12-17 18:56:00,
2013-12-17 13:58:00,74.9,59.0,30.12,NNE,24,6.2,6.2,59,0.00,,,0.00,TxWx,2013-12-17 18:58:00,
2013-12-17 13:59:00,75.0,59.0,30.11,East,91,5.6,5.6,58,0.00,,,0.00,TxWx,2013-12-17 18:59:00,
2013-12-17 14:00:00,75.1,59.0,30.11,NNW,339,3.7,3.7,58,0.00,,,0.00,TxWx,2013-12-17 19:00:00,
2013-12-17 14:01:00,74.9,58.0,30.12,North,1,6.8,8.0,57,0.00,,,0.00,TxWx,2013-12-17 19:01:00,
2013-12-17 14:02:00,74.8,58.0,30.11,WNW,294,3.1,3.1,56,0.00,,,0.00,TxWx,2013-12-17 19:02:00,
2013-12-17 14:03:00,74.8,58.0,30.11,ENE,69,3.1,4.3,57,0.00,,,0.00,TxWx,2013-12-17 19:03:00,
2013-12-17 14:04:00,74.9,59.0,30.11,NE,46,3.1,3.7,57,0.00,,,0.00,TxWx,2013-12-17 19:04:00,
2013-12-17 14:05:00,74.8,58.0,30.11,NE,46,4.3,5.0,57,0.00,,,0.00,TxWx,2013-12-17 19:05:00,
2013-12-17 14:06:00,74.4,57.0,30.12,NNE,24,5.0,6.2,56,0.00,,,0.00,TxWx,2013-12-17 19:06:00,
2013-12-17 14:07:00,74.6,58.0,30.11,ENE,69,6.8,6.8,56,0.00,,,0.00,TxWx,2013-12-17 19:07:00,
2013-12-17 14:08:00,75.0,59.0,30.12,ENE,69,4.3,4.3,57,0.00,,,0.00,TxWx,2013-12-17 19:08:00,
2013-12-17 14:09:00,74.8,59.0,30.11,East,91,5.0,6.2,57,0.00,,,0.00,TxWx,2013-12-17 19:09:00,
2013-12-17 14:10:00,74.8,59.0,30.23,East,91,7.4,7.4,57,0.00,,,0.00,TxWx,2013-12-17 19:10:00,
2013-12-17 14:11:00,74.8,58.0,30.11,East,91,5.0,5.0,56,0.00,,,0.00,TxWx,2013-12-17 19:11:00,
2013-12-17 14:12:00,74.8,58.0,30.11,ENE,69,4.3,5.0,56,0.00,,,0.00,TxWx,2013-12-17 19:12:00,
2013-12-17 14:14:00,74.6,58.0,30.11,NE,46,4.3,4.3,56,0.00,,,0.00,TxWx,2013-12-17 19:14:00,
2013-12-17 14:15:00,74.5,57.0,30.11,ENE,69,6.2,6.2,56,0.00,,,0.00,TxWx,2013-12-17 19:15:00,
2013-12-17 14:17:00,74.3,58.0,30.11,NE,46,6.2,6.2,57,0.00,,,0.00,TxWx,2013-12-17 19:17:00,
2013-12-17 14:18:00,74.4,57.0,30.11,ENE,69,3.1,3.1,56,0.00,,,0.00,TxWx,2013-12-17 19:18:00,
2013-12-17 14:19:00,74.8,59.0,30.11,East,91,3.7,3.7,58,0.00,,,0.00,TxWx,2013-12-17 19:19:00,
2013-12-17 14:20:00,74.7,59.0,30.11,ENE,69,6.2,6.2,58,0.00,,,0.00,TxWx,2013-12-17 19:20:00,
2013-12-17 14:21:00,74.5,59.0,30.11,ENE,69,5.6,6.2,58,0.00,,,0.00,TxWx,2013-12-17 19:21:00,
2013-12-17 14:22:00,74.8,59.0,30.11,ENE,69,4.3,4.3,59,0.00,,,0.00,TxWx,2013-12-17 19:22:00,
2013-12-17 14:23:00,74.8,59.0,30.11,ENE,69,3.1,3.7,59,0.00,,,0.00,TxWx,2013-12-17 19:23:00,
2013-12-17 14:24:00,74.6,59.0,30.11,East,91,6.8,6.8,57,0.00,,,0.00,TxWx,2013-12-17 19:24:00,
2013-12-17 14:25:00,74.4,58.0,30.11,ENE,69,5.0,5.0,57,0.00,,,0.00,TxWx,2013-12-17 19:25:00,
2013-12-17 14:26:00,74.8,59.0,30.11,ENE,69,3.7,3.7,57,0.00,,,0.00,TxWx,2013-12-17 19:26:00,
2013-12-17 14:28:00,74.6,59.0,30.11,ENE,69,5.0,6.2,58,0.00,,,0.00,TxWx,2013-12-17 19:28:00,
2013-12-17 14:39:00,74.1,58.0,30.11,East,91,3.1,4.3,58,0.00,,,0.00,TxWx,2013-12-17 19:39:00,
2013-12-17 14:44:00,74.1,59.0,30.11,ENE,69,7.4,9.3,59,0.00,,,0.00,TxWx,2013-12-17 19:44:00,
2013-12-17 14:45:00,74.1,58.0,30.11,ENE,69,5.0,5.0,59,0.00,,,0.00,TxWx,2013-12-17 19:45:00,
2013-12-17 14:49:00,74.2,58.0,30.11,NNE,24,6.8,6.8,58,0.00,,,0.00,TxWx,2013-12-17 19:49:00,
2013-12-17 14:50:00,74.4,58.0,30.11,WNW,294,1.2,2.5,58,0.00,,,0.00,TxWx,2013-12-17 19:50:00,
2013-12-17 14:51:00,74.5,59.0,30.11,NNE,24,5.6,5.6,58,0.00,,,0.00,TxWx,2013-12-17 19:51:00,
2013-12-17 14:54:00,74.6,60.0,30.11,East,91,5.6,5.6,60,0.00,,,0.00,TxWx,2013-12-17 19:54:00,
2013-12-17 14:55:00,74.7,60.0,30.11,ENE,69,6.2,7.4,61,0.00,,,0.00,TxWx,2013-12-17 19:55:00,
2013-12-17 14:56:00,74.6,60.0,30.11,NNE,24,5.0,5.0,61,0.00,,,0.00,TxWx,2013-12-17 19:56:00,
2013-12-17 14:59:00,74.2,59.0,30.11,ESE,114,4.3,4.3,59,0.00,,,0.00,TxWx,2013-12-17 19:59:00,
2013-12-17 15:00:00,74.3,59.0,30.11,ENE,69,4.3,5.0,59,0.00,,,0.00,TxWx,2013-12-17 20:00:00,
2013-12-17 15:01:00,74.5,60.0,30.11,East,91,3.7,5.6,60,0.00,,,0.00,TxWx,2013-12-17 20:01:00,
2013-12-17 15:05:00,74.5,58.0,30.11,NNE,24,2.5,2.5,59,0.00,,,0.00,TxWx,2013-12-17 20:05:00,
2013-12-17 15:06:00,74.3,58.0,30.11,NNE,24,3.7,4.3,59,0.00,,,0.00,TxWx,2013-12-17 20:06:00,
2013-12-17 15:10:00,73.9,58.0,30.11,ENE,69,3.7,5.0,58,0.00,,,0.00,TxWx,2013-12-17 20:10:00,
2013-12-17 15:11:00,74.1,58.0,30.11,NE,46,8.0,8.0,59,0.00,,,0.00,TxWx,2013-12-17 20:11:00,
2013-12-17 15:12:00,74.1,58.0,30.11,ENE,69,3.7,4.3,59,0.00,,,0.00,TxWx,2013-12-17 20:12:00,
2013-12-17 15:15:00,73.9,58.0,30.11,ENE,69,5.6,6.8,59,0.00,,,0.00,TxWx,2013-12-17 20:15:00,
2013-12-17 15:16:00,74.0,58.0,30.11,NE,46,6.2,6.2,59,0.00,,,0.00,TxWx,2013-12-17 20:16:00,
2013-12-17 15:17:00,73.8,58.0,30.11,NNE,24,5.6,7.4,59,0.00,,,0.00,TxWx,2013-12-17 20:17:00,
2013-12-17 15:18:00,73.6,59.0,30.11,NE,46,9.3,9.3,59,0.00,,,0.00,TxWx,2013-12-17 20:18:00,
2013-12-17 15:20:00,73.9,59.0,30.11,ENE,69,9.3,9.3,60,0.00,,,0.00,TxWx,2013-12-17 20:20:00,
2013-12-17 15:21:00,74.2,60.0,30.11,ENE,69,4.3,4.3,61,0.00,,,0.00,TxWx,2013-12-17 20:21:00,
2013-12-17 15:22:00,74.2,60.0,30.11,East,91,3.7,6.8,62,0.00,,,0.00,TxWx,2013-12-17 20:22:00,
2013-12-17 15:23:00,74.0,59.0,30.11,ENE,69,7.4,8.7,61,0.00,,,0.00,TxWx,2013-12-17 20:23:00,
2013-12-17 15:25:00,73.7,59.0,30.11,ENE,69,7.4,8.0,60,0.00,,,0.00,TxWx,2013-12-17 20:25:00,
2013-12-17 15:26:00,73.8,59.0,30.11,North,1,4.3,5.0,60,0.00,,,0.00,TxWx,2013-12-17 20:26:00,
2013-12-17 15:28:00,73.8,59.0,30.11,NE,46,4.3,5.6,60,0.00,,,0.00,TxWx,2013-12-17 20:28:00,
2013-12-17 15:29:00,73.7,59.0,30.11,NNE,24,3.1,3.1,60,0.00,,,0.00,TxWx,2013-12-17 20:29:00,
2013-12-17 15:30:00,73.5,59.0,30.12,NNW,339,5.0,5.6,59,0.00,,,0.00,TxWx,2013-12-17 20:30:00,
2013-12-17 15:31:00,73.7,59.0,30.12,East,91,2.5,2.5,59,0.00,,,0.00,TxWx,2013-12-17 20:31:00,
2013-12-17 15:33:00,73.7,58.0,30.11,NE,46,5.6,6.2,59,0.00,,,0.00,TxWx,2013-12-17 20:33:00,
2013-12-17 15:34:00,73.9,58.0,30.12,NE,46,8.0,9.9,59,0.00,,,0.00,TxWx,2013-12-17 20:34:00,
2013-12-17 15:36:00,74.0,58.0,30.12,NE,46,4.3,4.3,59,0.00,,,0.00,TxWx,2013-12-17 20:36:00,
2013-12-17 15:37:00,73.9,58.0,30.12,NE,46,6.2,8.0,59,0.00,,,0.00,TxWx,2013-12-17 20:37:00,
2013-12-17 15:38:00,74.3,59.0,30.12,NE,46,4.3,4.3,60,0.00,,,0.00,TxWx,2013-12-17 20:38:00,
2013-12-17 15:40:00,74.1,58.0,30.12,NNE,24,5.6,5.6,59,0.00,,,0.00,TxWx,2013-12-17 20:40:00,
2013-12-17 15:41:00,74.3,59.0,30.12,NE,46,1.9,2.5,59,0.00,,,0.00,TxWx,2013-12-17 20:41:00,
2013-12-17 15:42:00,74.1,58.0,30.12,NNE,24,4.3,4.3,59,0.00,,,0.00,TxWx,2013-12-17 20:42:00,
2013-12-17 15:44:00,73.9,58.0,30.12,NE,46,7.4,7.4,58,0.00,,,0.00,TxWx,2013-12-17 20:44:00,
2013-12-17 15:46:00,73.8,58.0,30.12,NNE,24,3.1,3.1,58,0.00,,,0.00,TxWx,2013-12-17 20:46:00,
2013-12-17 15:47:00,73.7,58.0,30.12,ENE,69,6.2,8.7,58,0.00,,,0.00,TxWx,2013-12-17 20:47:00,
2013-12-17 15:49:00,73.6,58.0,30.12,NE,46,1.9,1.9,58,0.00,,,0.00,TxWx,2013-12-17 20:49:00,
2013-12-17 15:51:00,73.5,57.0,30.12,NE,46,3.7,4.3,57,0.00,,,0.00,TxWx,2013-12-17 20:51:00,
2013-12-17 15:52:00,73.6,58.0,30.12,ESE,114,3.7,3.7,57,0.00,,,0.00,TxWx,2013-12-17 20:52:00,
2013-12-17 15:54:00,74.0,58.0,30.12,ENE,69,3.7,3.7,58,0.00,,,0.00,TxWx,2013-12-17 20:54:00,
2013-12-17 15:56:00,74.3,58.0,30.12,SSW,204,0.6,0.6,59,0.00,,,0.00,TxWx,2013-12-17 20:56:00,
2013-12-17 15:57:00,74.2,58.0,30.12,NNW,339,5.6,9.3,58,0.00,,,0.00,TxWx,2013-12-17 20:57:00,
2013-12-17 15:58:00,74.4,58.0,30.12,ENE,69,2.5,2.5,58,0.00,,,0.00,TxWx,2013-12-17 20:58:00,
2013-12-17 15:59:00,74.4,58.0,30.12,NW,316,2.5,2.5,57,0.00,,,0.00,TxWx,2013-12-17 20:59:00,
2013-12-17 16:00:00,74.4,58.0,30.12,WNW,294,2.5,2.5,57,0.00,,,0.00,TxWx,2013-12-17 21:00:00,
2013-12-17 16:02:00,74.2,57.0,30.12,NNW,339,2.5,2.5,56,0.00,,,0.00,TxWx,2013-12-17 21:02:00,
2013-12-17 16:03:00,74.3,58.0,30.12,East,91,3.7,3.7,57,0.00,,,0.00,TxWx,2013-12-17 21:03:00,
2013-12-17 16:05:00,74.0,57.0,30.12,NNE,24,3.1,3.1,56,0.00,,,0.00,TxWx,2013-12-17 21:05:00,
2013-12-17 16:07:00,74.0,57.0,30.12,NNW,339,1.9,2.5,56,0.00,,,0.00,TxWx,2013-12-17 21:07:00,
2013-12-17 16:08:00,74.0,58.0,30.12,North,1,3.1,4.3,57,0.00,,,0.00,TxWx,2013-12-17 21:08:00,
2013-12-17 16:11:00,74.2,58.0,30.12,NW,316,3.7,3.7,57,0.00,,,0.00,TxWx,2013-12-17 21:11:00,
2013-12-17 16:12:00,73.9,57.0,30.12,NNE,24,6.2,6.8,56,0.00,,,0.00,TxWx,2013-12-17 21:12:00,
2013-12-17 16:13:00,73.9,57.0,30.12,North,1,4.3,4.3,56,0.00,,,0.00,TxWx,2013-12-17 21:13:00,
2013-12-17 16:14:00,74.0,57.0,30.12,North,1,1.9,1.9,56,0.00,,,0.00,TxWx,2013-12-17 21:14:00,
2013-12-17 16:16:00,74.2,57.0,30.12,NE,46,1.2,1.9,56,0.00,,,0.00,TxWx,2013-12-17 21:16:00,
2013-12-17 16:17:00,74.3,57.0,30.12,NW,316,1.9,2.5,56,0.00,,,0.00,TxWx,2013-12-17 21:17:00,
2013-12-17 16:18:00,74.2,57.0,30.12,NE,46,5.0,5.0,56,0.00,,,0.00,TxWx,2013-12-17 21:18:00,
2013-12-17 16:19:00,74.2,57.0,30.12,ENE,69,1.2,1.9,56,0.00,,,0.00,TxWx,2013-12-17 21:19:00,
2013-12-17 16:21:00,74.2,58.0,30.12,NE,46,4.3,4.3,57,0.00,,,0.00,TxWx,2013-12-17 21:21:00,
2013-12-17 16:24:00,74.2,58.0,30.12,North,1,3.1,3.1,57,0.00,,,0.00,TxWx,2013-12-17 21:24:00,
2013-12-17 16:26:00,74.2,58.0,30.12,SSE,159,2.5,3.1,57,0.00,,,0.00,TxWx,2013-12-17 21:26:00,
2013-12-17 16:29:00,74.1,58.0,30.12,ENE,69,3.1,3.1,57,0.00,,,0.00,TxWx,2013-12-17 21:29:00,
2013-12-17 16:30:00,74.2,58.0,30.12,East,91,3.7,3.7,58,0.00,,,0.00,TxWx,2013-12-17 21:30:00,
2013-12-17 16:32:00,73.9,58.0,30.12,NNE,24,3.1,3.1,58,0.00,,,0.00,TxWx,2013-12-17 21:32:00,
2013-12-17 16:35:00,74.0,58.0,30.12,North,1,1.2,1.2,58,0.00,,,0.00,TxWx,2013-12-17 21:35:00,
2013-12-17 16:37:00,73.8,58.0,30.12,NE,46,3.7,5.0,59,0.00,,,0.00,TxWx,2013-12-17 21:37:00,
2013-12-17 16:40:00,73.5,57.0,30.12,NE,46,7.4,7.4,58,0.00,,,0.00,TxWx,2013-12-17 21:40:00,
2013-12-17 16:42:00,73.2,57.0,30.12,NE,46,3.7,5.0,58,0.00,,,0.00,TxWx,2013-12-17 21:42:00,
2013-12-17 16:45:00,73.2,57.0,30.12,NE,46,3.7,4.3,57,0.00,,,0.00,TxWx,2013-12-17 21:45:00,
2013-12-17 16:46:00,73.4,57.0,30.12,North,1,4.3,4.3,58,0.00,,,0.00,TxWx,2013-12-17 21:46:00,
2013-12-17 16:48:00,73.3,58.0,30.12,NNW,339,2.5,2.5,59,0.00,,,0.00,TxWx,2013-12-17 21:48:00,
2013-12-17 16:50:00,73.4,57.0,30.12,North,1,2.5,2.5,58,0.00,,,0.00,TxWx,2013-12-17 21:50:00,
2013-12-17 16:51:00,73.4,57.0,30.12,WNW,294,2.5,2.5,57,0.00,,,0.00,TxWx,2013-12-17 21:51:00,
2013-12-17 16:53:00,73.3,57.0,30.12,ENE,69,3.1,3.7,57,0.00,,,0.00,TxWx,2013-12-17 21:53:00,
2013-12-17 16:55:00,73.6,58.0,30.12,NE,46,3.1,3.1,58,0.00,,,0.00,TxWx,2013-12-17 21:55:00,
2013-12-17 16:56:00,73.6,59.0,30.12,NNE,24,5.0,5.6,59,0.00,,,0.00,TxWx,2013-12-17 21:56:00,
2013-12-17 16:57:00,73.3,58.0,30.12,NE,46,5.6,5.6,59,0.00,,,0.00,TxWx,2013-12-17 21:57:00,
2013-12-17 16:58:00,73.2,58.0,30.12,NE,46,5.6,5.6,59,0.00,,,0.00,TxWx,2013-12-17 21:58:00,
2013-12-17 17:00:00,73.2,58.0,30.12,NE,46,5.6,5.6,59,0.00,,,0.00,TxWx,2013-12-17 22:00:00,
2013-12-17 17:01:00,73.4,58.0,30.13,ENE,69,1.9,2.5,59,0.00,,,0.00,TxWx,2013-12-17 22:01:00,
2013-12-17 17:02:00,73.4,58.0,30.13,NNE,24,4.3,4.3,59,0.00,,,0.00,TxWx,2013-12-17 22:02:00,
2013-12-17 17:04:00,73.2,58.0,30.13,ENE,69,2.5,2.5,60,0.00,,,0.00,TxWx,2013-12-17 22:04:00,
2013-12-17 17:06:00,73.1,57.0,30.13,North,1,5.6,5.6,58,0.00,,,0.00,TxWx,2013-12-17 22:06:00,
2013-12-17 17:07:00,73.0,57.0,30.13,NNE,24,5.0,5.0,58,0.00,,,0.00,TxWx,2013-12-17 22:07:00,
2013-12-17 17:09:00,73.0,58.0,30.13,NW,316,3.1,3.7,59,0.00,,,0.00,TxWx,2013-12-17 22:09:00,
2013-12-17 17:10:00,73.0,58.0,30.13,North,1,5.0,5.0,59,0.00,,,0.00,TxWx,2013-12-17 22:10:00,
2013-12-17 17:11:00,73.0,58.0,30.13,NNW,339,4.3,4.3,59,0.00,,,0.00,TxWx,2013-12-17 22:11:00,
2013-12-17 17:12:00,72.9,58.0,30.13,East,91,6.2,7.4,59,0.00,,,0.00,TxWx,2013-12-17 22:12:00,
2013-12-17 17:15:00,72.9,57.0,30.13,NNW,339,3.7,3.7,57,0.00,,,0.00,TxWx,2013-12-17 22:15:00,
2013-12-17 17:16:00,72.8,57.0,30.13,NE,46,4.3,4.3,57,0.00,,,0.00,TxWx,2013-12-17 22:16:00,
2013-12-17 17:17:00,72.9,57.0,30.13,North,1,5.6,5.6,57,0.00,,,0.00,TxWx,2013-12-17 22:17:00,
2013-12-17 17:18:00,72.8,57.0,30.13,NNE,24,3.7,3.7,57,0.00,,,0.00,TxWx,2013-12-17 22:18:00,
2013-12-17 17:20:00,72.7,56.0,30.13,North,1,5.0,6.2,56,0.00,,,0.00,TxWx,2013-12-17 22:20:00,
2013-12-17 17:21:00,72.7,57.0,30.13,ENE,69,4.3,4.3,57,0.00,,,0.00,TxWx,2013-12-17 22:21:00,
2013-12-17 17:22:00,72.7,57.0,30.13,NNW,339,2.5,2.5,57,0.00,,,0.00,TxWx,2013-12-17 22:22:00,
2013-12-17 17:23:00,72.8,57.0,30.13,NNE,24,5.6,5.6,58,0.00,,,0.00,TxWx,2013-12-17 22:23:00,
2013-12-17 17:25:00,72.6,57.0,30.13,NE,46,3.1,3.1,58,0.00,,,0.00,TxWx,2013-12-17 22:25:00,
2013-12-17 17:26:00,72.5,57.0,30.13,NE,46,7.4,9.3,58,0.00,,,0.00,TxWx,2013-12-17 22:26:00,
2013-12-17 17:27:00,72.5,57.0,30.13,ENE,69,6.2,6.2,58,0.00,,,0.00,TxWx,2013-12-17 22:27:00,
2013-12-17 17:28:00,72.6,57.0,30.13,ENE,69,5.0,6.2,58,0.00,,,0.00,TxWx,2013-12-17 22:28:00,
2013-12-17 17:30:00,72.5,57.0,30.13,North,1,8.7,9.9,57,0.00,,,0.00,TxWx,2013-12-17 22:30:00,
2013-12-17 17:31:00,72.5,57.0,30.13,ENE,69,2.5,2.5,57,0.00,,,0.00,TxWx,2013-12-17 22:31:00,
2013-12-17 17:32:00,72.5,57.0,30.13,ENE,69,6.2,6.8,57,0.00,,,0.00,TxWx,2013-12-17 22:32:00,
2013-12-17 17:33:00,72.6,57.0,30.13,NNW,339,3.1,3.7,57,0.00,,,0.00,TxWx,2013-12-17 22:33:00,
2013-12-17 17:34:00,72.4,56.0,30.13,ENE,69,3.1,3.1,57,0.00,,,0.00,TxWx,2013-12-17 22:34:00,
2013-12-17 17:36:00,72.5,56.0,30.13,NNE,24,3.1,3.7,57,0.00,,,0.00,TxWx,2013-12-17 22:36:00,
2013-12-17 17:37:00,72.6,58.0,30.13,NE,46,1.9,1.9,59,0.00,,,0.00,TxWx,2013-12-17 22:37:00,
2013-12-17 17:39:00,72.4,56.0,30.13,ENE,69,3.1,3.1,58,0.00,,,0.00,TxWx,2013-12-17 22:39:00,
2013-12-17 17:40:00,72.3,56.0,30.13,NNE,24,3.1,3.1,58,0.00,,,0.00,TxWx,2013-12-17 22:40:00,
2013-12-17 17:41:00,72.4,56.0,30.13,North,1,1.9,1.9,58,0.00,,,0.00,TxWx,2013-12-17 22:41:00,
2013-12-17 17:42:00,72.4,57.0,30.13,East,91,1.9,1.9,59,0.00,,,0.00,TxWx,2013-12-17 22:42:00,
2013-12-17 17:43:00,72.3,56.0,30.13,NE,46,3.1,4.3,58,0.00,,,0.00,TxWx,2013-12-17 22:43:00,
2013-12-17 17:44:00,72.4,57.0,30.13,NNW,339,5.0,6.2,59,0.00,,,0.00,TxWx,2013-12-17 22:44:00,
2013-12-17 17:46:00,72.2,56.0,30.13,NNW,339,4.3,5.6,58,0.00,,,0.00,TxWx,2013-12-17 22:46:00,
2013-12-17 17:47:00,72.3,56.0,30.14,NNW,339,2.5,2.5,57,0.00,,,0.00,TxWx,2013-12-17 22:47:00,
2013-12-17 17:48:00,72.2,55.0,30.13,North,1,5.0,6.2,56,0.00,,,0.00,TxWx,2013-12-17 22:48:00,
2013-12-17 17:49:00,72.2,55.0,30.13,East,91,1.9,1.9,56,0.00,,,0.00,TxWx,2013-12-17 22:49:00,
2013-12-17 17:51:00,72.2,55.0,30.13,NNE,24,1.9,1.9,56,0.00,,,0.00,TxWx,2013-12-17 22:51:00,
2013-12-17 17:52:00,72.2,55.0,30.13,NW,316,1.9,1.9,56,0.00,,,0.00,TxWx,2013-12-17 22:52:00,
2013-12-17 17:53:00,72.2,56.0,30.13,North,1,3.1,3.7,57,0.00,,,0.00,TxWx,2013-12-17 22:53:00,
2013-12-17 17:54:00,72.2,56.0,30.14,North,1,2.5,2.5,57,0.00,,,0.00,TxWx,2013-12-17 22:54:00,
2013-12-17 17:56:00,72.2,55.0,30.13,North,1,4.3,4.3,56,0.00,,,0.00,TxWx,2013-12-17 22:56:00,
2013-12-17 17:57:00,72.2,56.0,30.14,NNW,339,1.9,1.9,57,0.00,,,0.00,TxWx,2013-12-17 22:57:00,
2013-12-17 17:58:00,72.1,56.0,30.14,North,1,3.1,3.7,57,0.00,,,0.00,TxWx,2013-12-17 22:58:00,
2013-12-17 17:59:00,72.1,56.0,30.14,NNE,24,2.5,2.5,57,0.00,,,0.00,TxWx,2013-12-17 22:59:00,
2013-12-17 18:00:00,72.2,56.0,30.14,NNW,339,1.9,1.9,58,0.00,,,0.00,TxWx,2013-12-17 23:00:00,
2013-12-17 18:02:00,72.1,56.0,30.14,NNE,24,3.7,5.0,58,0.00,,,0.00,TxWx,2013-12-17 23:02:00,
2013-12-17 18:03:00,72.2,56.0,30.14,NNW,339,5.0,5.0,58,0.00,,,0.00,TxWx,2013-12-17 23:03:00,
2013-12-17 18:04:00,72.2,56.0,30.14,NE,46,3.1,3.7,58,0.00,,,0.00,TxWx,2013-12-17 23:04:00,
2013-12-17 18:05:00,72.2,56.0,30.14,NNE,24,2.5,3.1,58,0.00,,,0.00,TxWx,2013-12-17 23:05:00,
2013-12-17 18:07:00,72.2,56.0,30.13,ENE,69,2.5,3.1,58,0.00,,,0.00,TxWx,2013-12-17 23:07:00,
2013-12-17 18:08:00,72.1,57.0,30.13,North,1,1.9,2.5,59,0.00,,,0.00,TxWx,2013-12-17 23:08:00,
2013-12-17 18:09:00,72.1,56.0,30.14,NNE,24,1.9,1.9,58,0.00,,,0.00,TxWx,2013-12-17 23:09:00,
2013-12-17 18:10:00,72.1,57.0,30.14,NNW,339,1.9,1.9,59,0.00,,,0.00,TxWx,2013-12-17 23:10:00,
2013-12-17 18:12:00,72.0,57.0,30.14,North,1,4.3,4.3,59,0.00,,,0.00,TxWx,2013-12-17 23:12:00,
2013-12-17 18:13:00,72.1,57.0,30.14,NE,46,4.3,4.3,59,0.00,,,0.00,TxWx,2013-12-17 23:13:00,
2013-12-17 18:14:00,72.2,57.0,30.14,ENE,69,3.7,3.7,59,0.00,,,0.00,TxWx,2013-12-17 23:14:00,
2013-12-17 18:16:00,72.2,56.0,30.14,NNE,24,5.6,6.2,58,0.00,,,0.00,TxWx,2013-12-17 23:16:00,
2013-12-17 18:17:00,72.3,56.0,30.14,East,91,2.5,2.5,57,0.00,,,0.00,TxWx,2013-12-17 23:17:00,
2013-12-17 18:18:00,72.3,56.0,30.14,NE,46,1.9,1.9,57,0.00,,,0.00,TxWx,2013-12-17 23:18:00,
2013-12-17 18:19:00,72.3,56.0,30.14,ENE,69,5.0,5.0,57,0.00,,,0.00,TxWx,2013-12-17 23:19:00,
2013-12-17 18:21:00,72.3,56.0,30.14,NNE,24,6.2,6.2,57,0.00,,,0.00,TxWx,2013-12-17 23:21:00,
2013-12-17 18:22:00,72.3,56.0,30.14,NNE,24,2.5,3.1,57,0.00,,,0.00,TxWx,2013-12-17 23:22:00,
2013-12-17 18:23:00,72.3,56.0,30.14,NNE,24,5.6,5.6,57,0.00,,,0.00,TxWx,2013-12-17 23:23:00,
2013-12-17 18:24:00,72.3,56.0,30.14,NNW,339,2.5,2.5,57,0.00,,,0.00,TxWx,2013-12-17 23:24:00,
2013-12-17 18:25:00,72.3,56.0,30.14,NW,316,2.5,2.5,57,0.00,,,0.00,TxWx,2013-12-17 23:25:00,
2013-12-17 18:27:00,72.3,56.0,30.14,NE,46,4.3,4.3,57,0.00,,,0.00,TxWx,2013-12-17 23:27:00,
2013-12-17 18:28:00,72.2,56.0,30.14,NNE,24,3.1,4.3,57,0.00,,,0.00,TxWx,2013-12-17 23:28:00,
2013-12-17 18:29:00,72.3,56.0,30.14,NE,46,2.5,2.5,58,0.00,,,0.00,TxWx,2013-12-17 23:29:00,
2013-12-17 18:30:00,72.3,56.0,30.14,NNE,24,3.1,4.3,58,0.00,,,0.00,TxWx,2013-12-17 23:30:00,
2013-12-17 18:32:00,72.2,57.0,30.14,North,1,3.7,3.7,59,0.00,,,0.00,TxWx,2013-12-17 23:32:00,
2013-12-17 18:33:00,72.1,56.0,30.14,NNE,24,1.9,2.5,58,0.00,,,0.00,TxWx,2013-12-17 23:33:00,
2013-12-17 18:34:00,72.1,56.0,30.14,ENE,69,2.5,2.5,58,0.00,,,0.00,TxWx,2013-12-17 23:34:00,
2013-12-17 18:35:00,72.2,56.0,30.14,NNE,24,3.1,3.7,58,0.00,,,0.00,TxWx,2013-12-17 23:35:00,
2013-12-17 18:38:00,72.1,56.0,30.14,North,1,5.6,6.2,58,0.00,,,0.00,TxWx,2013-12-17 23:38:00,
2013-12-17 18:39:00,72.2,56.0,30.14,NNE,24,3.1,3.7,57,0.00,,,0.00,TxWx,2013-12-17 23:39:00,
2013-12-17 18:40:00,72.3,56.0,30.14,NE,46,5.0,5.0,58,0.00,,,0.00,TxWx,2013-12-17 23:40:00,
2013-12-17 18:43:00,72.4,57.0,30.14,NNE,24,3.7,3.7,60,0.00,,,0.00,TxWx,2013-12-17 23:43:00,
2013-12-17 18:44:00,72.3,57.0,30.14,North,1,3.7,3.7,60,0.00,,,0.00,TxWx,2013-12-17 23:44:00,
2013-12-17 18:45:00,72.2,57.0,30.14,NE,46,3.7,5.0,59,0.00,,,0.00,TxWx,2013-12-17 23:45:00,
2013-12-17 18:49:00,72.2,56.0,30.14,NNW,339,1.9,1.9,58,0.00,,,0.00,TxWx,2013-12-17 23:49:00,
2013-12-17 18:50:00,72.2,56.0,30.14,North,1,3.1,3.1,58,0.00,,,0.00,TxWx,2013-12-17 23:50:00,
2013-12-17 18:54:00,72.1,56.0,30.14,NE,46,4.3,4.3,58,0.00,,,0.00,TxWx,2013-12-17 23:54:00,
2013-12-17 18:55:00,72.1,56.0,30.15,North,1,2.5,3.1,58,0.00,,,0.00,TxWx,2013-12-17 23:55:00,
2013-12-17 18:56:00,72.1,56.0,30.15,NNE,24,3.7,3.7,57,0.00,,,0.00,TxWx,2013-12-17 23:56:00,
2013-12-17 18:59:00,72.2,56.0,30.15,NE,46,3.7,4.3,58,0.00,,,0.00,TxWx,2013-12-17 23:59:00,
2013-12-17 19:01:00,72.2,56.0,30.15,WNW,294,1.2,1.9,57,0.00,,,0.00,TxWx,2013-12-18 00:01:00,
2013-12-17 19:02:00,72.2,56.0,30.15,NNW,339,1.2,1.2,57,0.00,,,0.00,TxWx,2013-12-18 00:02:00,
2013-12-17 19:04:00,72.0,56.0,30.15,NNE,24,3.1,4.3,57,0.00,,,0.00,TxWx,2013-12-18 00:04:00,
2013-12-17 19:05:00,72.0,56.0,30.15,NE,46,1.9,1.9,58,0.00,,,0.00,TxWx,2013-12-18 00:05:00,
2013-12-17 19:06:00,72.0,56.0,30.15,ENE,69,2.5,2.5,58,0.00,,,0.00,TxWx,2013-12-18 00:06:00,
2013-12-17 19:07:00,72.0,56.0,30.15,NNE,24,1.2,1.9,58,0.00,,,0.00,TxWx,2013-12-18 00:07:00,
2013-12-17 19:09:00,72.1,57.0,30.15,NNE,24,1.9,1.9,60,0.00,,,0.00,TxWx,2013-12-18 00:09:00,
2013-12-17 19:10:00,72.2,57.0,30.15,North,1,6.8,6.8,60,0.00,,,0.00,TxWx,2013-12-18 00:10:00,
2013-12-17 19:11:00,72.2,58.0,30.15,NNE,24,6.2,6.2,61,0.00,,,0.00,TxWx,2013-12-18 00:11:00,
2013-12-17 19:12:00,72.2,58.0,30.15,ENE,69,5.6,5.6,61,0.00,,,0.00,TxWx,2013-12-18 00:12:00,
2013-12-17 19:13:00,72.2,58.0,30.15,WNW,294,2.5,3.1,61,0.00,,,0.00,TxWx,2013-12-18 00:13:00,
2013-12-17 19:14:00,72.3,58.0,30.15,East,91,3.7,4.3,61,0.00,,,0.00,TxWx,2013-12-18 00:14:00,
2013-12-17 19:16:00,72.3,58.0,30.15,East,91,4.3,4.3,61,0.00,,,0.00,TxWx,2013-12-18 00:16:00,
2013-12-17 19:17:00,72.3,58.0,30.15,NNE,24,6.2,9.3,61,0.00,,,0.00,TxWx,2013-12-18 00:17:00,
2013-12-17 19:18:00,72.4,57.0,30.15,ENE,69,7.4,7.4,60,0.00,,,0.00,TxWx,2013-12-18 00:18:00,
2013-12-17 19:19:00,72.3,58.0,30.15,ENE,69,3.1,3.7,61,0.00,,,0.00,TxWx,2013-12-18 00:19:00,
2013-12-17 19:21:00,72.2,58.0,30.15,ENE,69,5.6,5.6,61,0.00,,,0.00,TxWx,2013-12-18 00:21:00,
2013-12-17 19:22:00,72.5,58.0,30.15,ENE,69,6.8,6.8,61,0.00,,,0.00,TxWx,2013-12-18 00:22:00,
2013-12-17 19:23:00,72.4,58.0,30.15,ENE,69,6.8,6.8,61,0.00,,,0.00,TxWx,2013-12-18 00:23:00,
2013-12-17 19:24:00,72.4,58.0,30.15,ESE,114,6.2,6.2,61,0.00,,,0.00,TxWx,2013-12-18 00:24:00,
2013-12-17 19:25:00,72.3,57.0,30.15,ENE,69,5.0,5.0,60,0.00,,,0.00,TxWx,2013-12-18 00:25:00,
2013-12-17 19:26:00,72.6,59.0,30.15,NNW,339,3.7,3.7,61,0.00,,,0.00,TxWx,2013-12-18 00:26:00,
2013-12-17 19:27:00,72.3,57.0,30.15,ENE,69,5.6,6.8,60,0.00,,,0.00,TxWx,2013-12-18 00:27:00,
2013-12-17 19:28:00,72.4,57.0,30.15,NE,46,5.6,5.6,60,0.00,,,0.00,TxWx,2013-12-18 00:28:00,
2013-12-17 19:30:00,72.5,58.0,30.15,ENE,69,8.0,8.0,61,0.00,,,0.00,TxWx,2013-12-18 00:30:00,
2013-12-17 19:31:00,72.4,58.0,30.15,NNW,339,3.1,4.3,61,0.00,,,0.00,TxWx,2013-12-18 00:31:00,
2013-12-17 19:32:00,72.4,58.0,30.15,NNW,339,3.1,3.1,61,0.00,,,0.00,TxWx,2013-12-18 00:32:00,
2013-12-17 19:33:00,72.3,57.0,30.15,North,1,5.6,5.6,60,0.00,,,0.00,TxWx,2013-12-18 00:33:00,
2013-12-17 19:35:00,72.4,57.0,30.15,North,1,2.5,2.5,59,0.00,,,0.00,TxWx,2013-12-18 00:35:00,
2013-12-17 19:36:00,72.5,57.0,30.15,ENE,69,2.5,3.1,59,0.00,,,0.00,TxWx,2013-12-18 00:36:00,
2013-12-17 19:37:00,72.4,57.0,30.15,ENE,69,1.9,3.1,60,0.00,,,0.00,TxWx,2013-12-18 00:37:00,
2013-12-17 19:38:00,72.3,57.0,30.15,North,1,3.1,3.7,60,0.00,,,0.00,TxWx,2013-12-18 00:38:00,
2013-12-17 19:39:00,72.3,57.0,30.15,North,1,2.5,2.5,59,0.00,,,0.00,TxWx,2013-12-18 00:39:00,
2013-12-17 19:40:00,72.2,56.0,30.16,ENE,69,1.9,2.5,58,0.00,,,0.00,TxWx,2013-12-18 00:40:00,
2013-12-17 19:41:00,72.3,56.0,30.15,North,1,4.3,5.0,58,0.00,,,0.00,TxWx,2013-12-18 00:41:00,
2013-12-17 19:42:00,72.3,56.0,30.16,NNW,339,2.5,2.5,58,0.00,,,0.00,TxWx,2013-12-18 00:42:00,
2013-12-17 19:43:00,72.2,56.0,30.16,North,1,4.3,4.3,58,0.00,,,0.00,TxWx,2013-12-18 00:43:00,
2013-12-17 19:44:00,72.2,56.0,30.16,NE,46,3.1,3.7,58,0.00,,,0.00,TxWx,2013-12-18 00:44:00,
2013-12-17 19:46:00,72.2,56.0,30.16,North,1,1.2,1.9,58,0.00,,,0.00,TxWx,2013-12-18 00:46:00,
2013-12-17 19:47:00,72.2,56.0,30.16,NNE,24,5.0,5.0,58,0.00,,,0.00,TxWx,2013-12-18 00:47:00,
2013-12-17 19:49:00,72.1,56.0,30.16,NE,46,1.2,1.2,58,0.00,,,0.00,TxWx,2013-12-18 00:49:00,
2013-12-17 19:51:00,72.2,57.0,30.16,North,1,3.1,3.1,59,0.00,,,0.00,TxWx,2013-12-18 00:51:00,
2013-12-17 19:52:00,72.2,57.0,30.16,NE,46,4.3,4.3,59,0.00,,,0.00,TxWx,2013-12-18 00:52:00,
2013-12-17 19:54:00,72.3,57.0,30.16,East,91,3.1,3.7,59,0.00,,,0.00,TxWx,2013-12-18 00:54:00,
2013-12-17 19:55:00,72.2,57.0,30.16,North,1,3.1,3.1,59,0.00,,,0.00,TxWx,2013-12-18 00:55:00,
2013-12-17 19:56:00,72.3,57.0,30.16,North,1,3.1,3.7,59,0.00,,,0.00,TxWx,2013-12-18 00:56:00,
2013-12-17 19:57:00,72.3,57.0,30.16,ENE,69,1.2,1.2,60,0.00,,,0.00,TxWx,2013-12-18 00:57:00,
2013-12-17 19:59:00,72.3,57.0,30.16,NE,46,3.7,3.7,60,0.00,,,0.00,TxWx,2013-12-18 00:59:00,
2013-12-17 20:00:00,72.3,57.0,30.16,North,1,4.3,5.6,60,0.00,,,0.00,TxWx,2013-12-18 01:00:00,
2013-12-17 20:01:00,72.2,58.0,30.16,North,1,3.1,3.7,61,0.00,,,0.00,TxWx,2013-12-18 01:01:00,
2013-12-17 20:02:00,72.2,58.0,30.16,North,1,3.1,3.1,61,0.00,,,0.00,TxWx,2013-12-18 01:02:00,
2013-12-17 20:03:00,72.2,58.0,30.16,ENE,69,2.5,2.5,61,0.00,,,0.00,TxWx,2013-12-18 01:03:00,
2013-12-17 20:05:00,72.2,57.0,30.16,NNE,24,1.9,1.9,60,0.00,,,0.00,TxWx,2013-12-18 01:05:00,
2013-12-17 20:06:00,72.2,57.0,30.16,NNE,24,5.6,5.6,60,0.00,,,0.00,TxWx,2013-12-18 01:06:00,
2013-12-17 20:07:00,72.2,57.0,30.16,North,1,1.2,1.2,60,0.00,,,0.00,TxWx,2013-12-18 01:07:00,
2013-12-17 20:09:00,72.2,58.0,30.16,ENE,69,3.7,4.3,61,0.00,,,0.00,TxWx,2013-12-18 01:09:00,
2013-12-17 20:10:00,72.2,57.0,30.16,NNW,339,3.7,5.0,60,0.00,,,0.00,TxWx,2013-12-18 01:10:00,
2013-12-17 20:11:00,72.2,58.0,30.16,NNE,24,4.3,5.0,61,0.00,,,0.00,TxWx,2013-12-18 01:11:00,
2013-12-17 20:12:00,72.1,57.0,30.16,NNW,339,3.7,5.0,60,0.00,,,0.00,TxWx,2013-12-18 01:12:00,
2013-12-17 20:14:00,72.1,57.0,30.16,North,1,3.7,3.7,59,0.00,,,0.00,TxWx,2013-12-18 01:14:00,
2013-12-17 20:16:00,72.1,57.0,30.16,NNE,24,2.5,2.5,60,0.00,,,0.00,TxWx,2013-12-18 01:16:00,
2013-12-17 20:17:00,72.1,57.0,30.16,NNE,24,4.3,4.3,60,0.00,,,0.00,TxWx,2013-12-18 01:17:00,
2013-12-17 20:18:00,72.2,57.0,30.16,North,1,5.0,5.0,59,0.00,,,0.00,TxWx,2013-12-18 01:18:00,
2013-12-17 20:20:00,72.2,57.0,30.16,ENE,69,5.0,6.2,60,0.00,,,0.00,TxWx,2013-12-18 01:20:00,
2013-12-17 20:22:00,72.2,57.0,30.17,ENE,69,3.1,3.1,60,0.00,,,0.00,TxWx,2013-12-18 01:22:00,
2013-12-17 20:23:00,72.1,57.0,30.16,East,91,3.7,4.3,60,0.00,,,0.00,TxWx,2013-12-18 01:23:00,
2013-12-17 20:25:00,72.2,57.0,30.16,SE,136,5.0,5.6,59,0.00,,,0.00,TxWx,2013-12-18 01:25:00,
2013-12-17 20:28:00,72.3,57.0,30.17,ENE,69,2.5,2.5,59,0.00,,,0.00,TxWx,2013-12-18 01:28:00,
2013-12-17 20:30:00,72.3,57.0,30.16,NNW,339,4.3,5.0,60,0.00,,,0.00,TxWx,2013-12-18 01:30:00,
2013-12-17 20:33:00,72.3,57.0,30.17,NNE,24,4.3,4.3,60,0.00,,,0.00,TxWx,2013-12-18 01:33:00,
2013-12-17 20:36:00,72.3,58.0,30.17,NE,46,6.2,6.2,61,0.00,,,0.00,TxWx,2013-12-18 01:36:00,
2013-12-17 20:38:00,72.5,59.0,30.17,North,1,5.0,5.0,62,0.00,,,0.00,TxWx,2013-12-18 01:38:00,
2013-12-17 20:39:00,72.3,58.0,30.17,NE,46,8.0,8.0,62,0.00,,,0.00,TxWx,2013-12-18 01:39:00,
2013-12-17 20:41:00,72.4,58.0,30.17,NE,46,6.2,6.8,61,0.00,,,0.00,TxWx,2013-12-18 01:41:00,
2013-12-17 20:43:00,72.4,57.0,30.17,NE,46,3.1,4.3,60,0.00,,,0.00,TxWx,2013-12-18 01:43:00,
2013-12-17 20:44:00,72.4,57.0,30.17,ENE,69,4.3,5.0,60,0.00,,,0.00,TxWx,2013-12-18 01:44:00,
2013-12-17 20:46:00,72.3,57.0,30.17,NE,46,3.1,3.1,60,0.00,,,0.00,TxWx,2013-12-18 01:46:00,
2013-12-17 20:48:00,72.3,57.0,30.17,North,1,2.5,2.5,60,0.00,,,0.00,TxWx,2013-12-18 01:48:00,
2013-12-17 20:49:00,72.3,57.0,30.17,NE,46,2.5,2.5,60,0.00,,,0.00,TxWx,2013-12-18 01:49:00,
2013-12-17 20:50:00,72.3,57.0,30.17,ENE,69,3.7,4.3,60,0.00,,,0.00,TxWx,2013-12-18 01:50:00,
2013-12-17 20:51:00,72.4,58.0,30.17,North,1,6.8,6.8,61,0.00,,,0.00,TxWx,2013-12-18 01:51:00,
2013-12-17 20:53:00,72.4,58.0,30.17,NNE,24,9.3,9.3,61,0.00,,,0.00,TxWx,2013-12-18 01:53:00,
2013-12-17 20:54:00,72.3,57.0,30.17,North,1,9.3,9.3,60,0.00,,,0.00,TxWx,2013-12-18 01:54:00,
2013-12-17 20:56:00,72.4,57.0,30.17,NE,46,3.1,4.3,59,0.00,,,0.00,TxWx,2013-12-18 01:56:00,
2013-12-17 20:58:00,72.3,57.0,30.17,NE,46,3.7,4.3,59,0.00,,,0.00,TxWx,2013-12-18 01:58:00,
2013-12-17 20:59:00,72.3,57.0,30.17,NW,316,3.1,3.1,59,0.00,,,0.00,TxWx,2013-12-18 01:59:00,
2013-12-17 21:00:00,72.3,57.0,30.17,NE,46,3.7,6.2,59,0.00,,,0.00,TxWx,2013-12-18 02:00:00,
2013-12-17 21:01:00,72.3,57.0,30.17,NNE,24,3.7,5.0,59,0.00,,,0.00,TxWx,2013-12-18 02:01:00,
2013-12-17 21:04:00,72.3,57.0,30.17,NNE,24,3.1,3.1,60,0.00,,,0.00,TxWx,2013-12-18 02:04:00,
2013-12-17 21:05:00,72.3,57.0,30.17,North,1,3.1,3.1,59,0.00,,,0.00,TxWx,2013-12-18 02:05:00,
2013-12-17 21:06:00,72.3,57.0,30.17,NNE,24,4.3,4.3,59,0.00,,,0.00,TxWx,2013-12-18 02:06:00,
2013-12-17 21:09:00,72.3,57.0,30.17,ENE,69,3.1,3.7,60,0.00,,,0.00,TxWx,2013-12-18 02:09:00,
2013-12-17 21:10:00,72.2,57.0,30.17,NE,46,3.1,3.1,60,0.00,,,0.00,TxWx,2013-12-18 02:10:00,
2013-12-17 21:11:00,72.3,57.0,30.16,East,91,6.8,6.8,60,0.00,,,0.00,TxWx,2013-12-18 02:11:00,
2013-12-17 21:14:00,72.3,57.0,30.17,NNW,339,3.7,3.7,59,0.00,,,0.00,TxWx,2013-12-18 02:14:00,
2013-12-17 21:15:00,72.5,57.0,30.17,North,1,3.1,3.7,59,0.00,,,0.00,TxWx,2013-12-18 02:15:00,
2013-12-17 21:16:00,72.4,57.0,30.17,NE,46,4.3,5.0,59,0.00,,,0.00,TxWx,2013-12-18 02:16:00,
2013-12-17 21:19:00,72.3,57.0,30.17,NNE,24,0.6,1.9,59,0.00,,,0.00,TxWx,2013-12-18 02:19:00,
2013-12-17 21:20:00,72.4,57.0,30.17,NE,46,4.3,4.3,59,0.00,,,0.00,TxWx,2013-12-18 02:20:00,
2013-12-17 21:21:00,72.4,57.0,30.16,NE,46,3.1,3.1,60,0.00,,,0.00,TxWx,2013-12-18 02:21:00,
2013-12-17 21:22:00,72.4,57.0,30.17,ENE,69,3.7,3.7,60,0.00,,,0.00,TxWx,2013-12-18 02:22:00,
2013-12-17 21:24:00,72.3,57.0,30.17,NW,316,1.9,1.9,60,0.00,,,0.00,TxWx,2013-12-18 02:24:00,
2013-12-17 21:25:00,72.3,57.0,30.17,NNE,24,2.5,2.5,60,0.00,,,0.00,TxWx,2013-12-18 02:25:00,
2013-12-17 21:26:00,72.3,57.0,30.17,NNW,339,1.9,1.9,59,0.00,,,0.00,TxWx,2013-12-18 02:26:00,
2013-12-17 21:27:00,72.2,57.0,30.17,NNW,339,1.9,2.5,59,0.00,,,0.00,TxWx,2013-12-18 02:27:00,
2013-12-17 21:28:00,72.3,57.0,30.17,NNE,24,3.7,4.3,59,0.00,,,0.00,TxWx,2013-12-18 02:28:00,
2013-12-17 21:30:00,72.1,57.0,30.17,North,1,1.9,1.9,59,0.00,,,0.00,TxWx,2013-12-18 02:30:00,
2013-12-17 21:31:00,72.1,57.0,30.17,North,1,1.9,2.5,59,0.00,,,0.00,TxWx,2013-12-18 02:31:00,
2013-12-17 21:32:00,72.1,57.0,30.17,North,1,0.6,1.2,59,0.00,,,0.00,TxWx,2013-12-18 02:32:00,
2013-12-17 21:33:00,72.0,57.0,30.17,NNE,24,2.5,2.5,59,0.00,,,0.00,TxWx,2013-12-18 02:33:00,
2013-12-17 21:35:00,72.0,57.0,30.17,NNW,339,1.9,1.9,59,0.00,,,0.00,TxWx,2013-12-18 02:35:00,
2013-12-17 21:36:00,72.1,57.0,30.17,NNE,24,1.9,1.9,60,0.00,,,0.00,TxWx,2013-12-18 02:36:00,
2013-12-17 21:37:00,72.1,57.0,30.17,NW,316,1.2,1.9,60,0.00,,,0.00,TxWx,2013-12-18 02:37:00,
2013-12-17 21:38:00,72.1,57.0,30.17,NE,46,2.5,2.5,60,0.00,,,0.00,TxWx,2013-12-18 02:38:00,
2013-12-17 21:39:00,72.0,57.0,30.17,North,1,3.7,3.7,59,0.00,,,0.00,TxWx,2013-12-18 02:39:00,
2013-12-17 21:40:00,72.0,57.0,30.17,North,1,2.5,3.1,59,0.00,,,0.00,TxWx,2013-12-18 02:40:00,
2013-12-17 21:41:00,72.2,57.0,30.17,NE,46,4.3,5.0,60,0.00,,,0.00,TxWx,2013-12-18 02:41:00,
2013-12-17 21:43:00,72.3,57.0,30.17,NNE,24,1.9,2.5,60,0.00,,,0.00,TxWx,2013-12-18 02:43:00,
2013-12-17 21:44:00,72.2,57.0,30.17,NW,316,4.3,4.3,60,0.00,,,0.00,TxWx,2013-12-18 02:44:00,
2013-12-17 21:45:00,72.1,57.0,30.17,North,1,2.5,2.5,60,0.00,,,0.00,TxWx,2013-12-18 02:45:00,
2013-12-17 21:47:00,72.0,57.0,30.17,NE,46,3.1,3.7,59,0.00,,,0.00,TxWx,2013-12-18 02:47:00,
2013-12-17 21:48:00,72.1,57.0,30.17,NNE,24,1.2,1.2,59,0.00,,,0.00,TxWx,2013-12-18 02:48:00,
2013-12-17 21:49:00,72.1,57.0,30.17,NNE,24,3.7,3.7,59,0.00,,,0.00,TxWx,2013-12-18 02:49:00,
2013-12-17 21:50:00,72.1,57.0,30.17,North,1,3.7,3.7,59,0.00,,,0.00,TxWx,2013-12-18 02:50:00,
2013-12-17 21:51:00,72.1,57.0,30.17,NW,316,1.9,1.9,59,0.00,,,0.00,TxWx,2013-12-18 02:51:00,
2013-12-17 21:52:00,72.1,57.0,30.17,NE,46,4.3,4.3,59,0.00,,,0.00,TxWx,2013-12-18 02:52:00,
2013-12-17 21:53:00,72.2,57.0,30.17,North,1,5.0,6.8,59,0.00,,,0.00,TxWx,2013-12-18 02:53:00,
2013-12-17 21:55:00,72.3,57.0,30.17,NE,46,4.3,4.3,60,0.00,,,0.00,TxWx,2013-12-18 02:55:00,
2013-12-17 21:56:00,72.3,57.0,30.17,NW,316,3.7,3.7,60,0.00,,,0.00,TxWx,2013-12-18 02:56:00,
2013-12-17 21:57:00,72.3,57.0,30.18,East,91,1.2,1.2,60,0.00,,,0.00,TxWx,2013-12-18 02:57:00,
2013-12-17 21:58:00,72.2,57.0,30.17,North,1,2.5,2.5,60,0.00,,,0.00,TxWx,2013-12-18 02:58:00,
2013-12-17 22:00:00,72.2,57.0,30.18,ENE,69,1.9,1.9,60,0.00,,,0.00,TxWx,2013-12-18 03:00:00,
2013-12-17 22:01:00,72.1,57.0,30.18,NNE,24,4.3,5.0,59,0.00,,,0.00,TxWx,2013-12-18 03:01:00,
2013-12-17 22:03:00,72.2,57.0,30.18,NNE,24,1.2,1.2,59,0.00,,,0.00,TxWx,2013-12-18 03:03:00,
2013-12-17 22:06:00,71.5,57.0,30.18,NW,316,2.5,2.5,61,0.00,,,0.00,TxWx,2013-12-18 03:06:00,
2013-12-17 22:07:00,70.8,57.0,30.18,North,1,3.7,4.3,62,0.00,,,0.00,TxWx,2013-12-18 03:07:00,
2013-12-17 22:08:00,70.3,57.0,30.18,North,1,1.2,1.2,64,0.00,,,0.00,TxWx,2013-12-18 03:08:00,
2013-12-17 22:09:00,70.0,57.0,30.18,West,271,3.7,3.7,65,0.00,,,0.00,TxWx,2013-12-18 03:09:00,
2013-12-17 22:11:00,69.7,58.0,30.18,NW,316,0.6,1.2,66,0.00,,,0.00,TxWx,2013-12-18 03:11:00,
2013-12-17 22:12:00,69.6,58.0,30.18,West,271,1.9,1.9,66,0.00,,,0.00,TxWx,2013-12-18 03:12:00,
2013-12-17 22:13:00,69.4,58.0,30.18,WNW,294,3.1,3.1,67,0.00,,,0.00,TxWx,2013-12-18 03:13:00,
2013-12-17 22:14:00,69.4,58.0,30.18,WNW,294,2.5,2.5,68,0.00,,,0.00,TxWx,2013-12-18 03:14:00,
2013-12-17 22:16:00,69.2,58.0,30.18,West,271,1.2,1.2,68,0.00,,,0.00,TxWx,2013-12-18 03:16:00,
2013-12-17 22:17:00,69.1,58.0,30.18,West,271,0.6,0.6,68,0.00,,,0.00,TxWx,2013-12-18 03:17:00,
2013-12-17 22:18:00,68.7,58.0,30.18,NW,316,2.5,2.5,68,0.00,,,0.00,TxWx,2013-12-18 03:18:00,
2013-12-17 22:19:00,68.6,58.0,30.18,NW,316,1.9,1.9,69,0.00,,,0.00,TxWx,2013-12-18 03:19:00,
2013-12-17 22:21:00,68.5,57.0,30.17,WNW,294,1.2,1.9,69,0.00,,,0.00,TxWx,2013-12-18 03:21:00,
2013-12-17 22:22:00,68.5,57.0,30.18,NW,316,1.9,1.9,69,0.00,,,0.00,TxWx,2013-12-18 03:22:00,
2013-12-17 22:23:00,68.4,57.0,30.17,NW,316,1.2,1.9,69,0.00,,,0.00,TxWx,2013-12-18 03:23:00,
2013-12-17 22:24:00,68.3,57.0,30.17,NW,316,0.6,0.6,69,0.00,,,0.00,TxWx,2013-12-18 03:24:00,
2013-12-17 22:25:00,68.3,58.0,30.17,NW,316,1.9,2.5,70,0.00,,,0.00,TxWx,2013-12-18 03:25:00,
2013-12-17 22:26:00,68.3,58.0,30.17,NW,316,1.9,1.9,70,0.00,,,0.00,TxWx,2013-12-18 03:26:00,
2013-12-17 22:27:00,68.2,58.0,30.17,NW,316,1.9,1.9,70,0.00,,,0.00,TxWx,2013-12-18 03:27:00,
2013-12-17 22:29:00,68.2,58.0,30.17,NW,316,1.9,2.5,70,0.00,,,0.00,TxWx,2013-12-18 03:29:00,
2013-12-17 22:31:00,68.2,58.0,30.17,NNW,339,3.7,3.7,71,0.00,,,0.00,TxWx,2013-12-18 03:31:00,
2013-12-17 22:33:00,68.2,58.0,30.17,NW,316,2.5,3.1,71,0.00,,,0.00,TxWx,2013-12-18 03:33:00,
2013-12-17 22:34:00,68.2,58.0,30.17,NW,316,1.2,1.2,71,0.00,,,0.00,TxWx,2013-12-18 03:34:00,
2013-12-17 22:35:00,68.1,58.0,30.17,NW,316,1.9,1.9,71,0.00,,,0.00,TxWx,2013-12-18 03:35:00,
2013-12-17 22:37:00,68.1,58.0,30.17,NW,316,1.9,1.9,71,0.00,,,0.00,TxWx,2013-12-18 03:37:00,
2013-12-17 22:38:00,68.1,58.0,30.17,NW,316,2.5,2.5,71,0.00,,,0.00,TxWx,2013-12-18 03:38:00,
2013-12-17 22:39:00,68.0,58.0,30.17,NNW,339,1.9,2.5,71,0.00,,,0.00,TxWx,2013-12-18 03:39:00,
2013-12-17 22:40:00,67.9,58.0,30.17,NW,316,1.9,2.5,71,0.00,,,0.00,TxWx,2013-12-18 03:40:00,
2013-12-17 22:42:00,67.8,58.0,30.17,NW,316,2.5,3.1,71,0.00,,,0.00,TxWx,2013-12-18 03:42:00,
2013-12-17 22:43:00,67.8,58.0,30.17,NW,316,2.5,2.5,71,0.00,,,0.00,TxWx,2013-12-18 03:43:00,
2013-12-17 22:45:00,67.8,58.0,30.17,NW,316,1.9,1.9,72,0.00,,,0.00,TxWx,2013-12-18 03:45:00,
2013-12-17 22:47:00,67.8,58.0,30.17,NW,316,1.9,1.9,72,0.00,,,0.00,TxWx,2013-12-18 03:47:00,
2013-12-17 22:48:00,67.7,58.0,30.17,WNW,294,1.2,1.2,72,0.00,,,0.00,TxWx,2013-12-18 03:48:00,
2013-12-17 22:50:00,67.7,58.0,30.17,WNW,294,1.9,1.9,72,0.00,,,0.00,TxWx,2013-12-18 03:50:00,
2013-12-17 22:52:00,67.7,59.0,30.17,NW,316,3.1,3.1,72,0.00,,,0.00,TxWx,2013-12-18 03:52:00,
2013-12-17 22:53:00,67.7,59.0,30.17,NW,316,1.2,1.9,72,0.00,,,0.00,TxWx,2013-12-18 03:53:00,
2013-12-17 22:56:00,67.6,59.0,30.17,NW,316,1.9,1.9,72,0.00,,,0.00,TxWx,2013-12-18 03:56:00,
2013-12-17 22:58:00,67.5,58.0,30.17,NW,316,1.9,2.5,72,0.00,,,0.00,TxWx,2013-12-18 03:58:00,
2013-12-17 23:01:00,67.6,59.0,30.17,NW,316,1.2,1.9,73,0.00,,,0.00,TxWx,2013-12-18 04:01:00,
2013-12-17 23:03:00,67.5,59.0,30.17,NW,316,2.5,2.5,73,0.00,,,0.00,TxWx,2013-12-18 04:03:00,
2013-12-17 23:04:00,67.5,58.0,30.17,NW,316,3.1,3.1,73,0.00,,,0.00,TxWx,2013-12-18 04:04:00,
2013-12-17 23:06:00,67.7,59.0,30.17,WNW,294,1.2,1.9,74,0.00,,,0.00,TxWx,2013-12-18 04:06:00,
2013-12-17 23:07:00,67.7,59.0,30.17,WNW,294,1.9,1.9,73,0.00,,,0.00,TxWx,2013-12-18 04:07:00,
2013-12-17 23:08:00,67.6,59.0,30.17,NW,316,2.5,2.5,74,0.00,,,0.00,TxWx,2013-12-18 04:08:00,
2013-12-17 23:09:00,67.5,59.0,30.17,NW,316,1.9,1.9,74,0.00,,,0.00,TxWx,2013-12-18 04:09:00,
2013-12-17 23:11:00,67.3,58.0,30.16,NW,316,1.9,1.9,73,0.00,,,0.00,TxWx,2013-12-18 04:11:00,
2013-12-17 23:12:00,67.3,58.0,30.17,NW,316,2.5,2.5,73,0.00,,,0.00,TxWx,2013-12-18 04:12:00,
2013-12-17 23:13:00,67.4,58.0,30.17,NNW,339,1.9,1.9,74,0.00,,,0.00,TxWx,2013-12-18 04:13:00,
2013-12-17 23:14:00,67.3,58.0,30.17,NW,316,1.9,1.9,74,0.00,,,0.00,TxWx,2013-12-18 04:14:00,
2013-12-17 23:15:00,67.3,58.0,30.17,NW,316,1.9,1.9,74,0.00,,,0.00,TxWx,2013-12-18 04:15:00,
2013-12-17 23:17:00,67.2,58.0,30.17,WNW,294,2.5,3.1,74,0.00,,,0.00,TxWx,2013-12-18 04:17:00,
2013-12-17 23:18:00,67.2,58.0,30.17,WNW,294,1.9,1.9,74,0.00,,,0.00,TxWx,2013-12-18 04:18:00,
2013-12-17 23:19:00,67.3,58.0,30.17,WNW,294,1.2,1.9,74,0.00,,,0.00,TxWx,2013-12-18 04:19:00,
2013-12-17 23:20:00,67.3,58.0,30.17,WNW,294,1.2,1.2,74,0.00,,,0.00,TxWx,2013-12-18 04:20:00,
2013-12-17 23:22:00,67.2,59.0,30.17,NW,316,1.2,1.2,75,0.00,,,0.00,TxWx,2013-12-18 04:22:00,
2013-12-17 23:23:00,67.2,59.0,30.17,NW,316,1.9,1.9,75,0.00,,,0.00,TxWx,2013-12-18 04:23:00,
2013-12-17 23:24:00,67.2,59.0,30.17,NW,316,1.9,2.5,75,0.00,,,0.00,TxWx,2013-12-18 04:24:00,
2013-12-17 23:25:00,67.1,59.0,30.16,NW,316,2.5,2.5,75,0.00,,,0.00,TxWx,2013-12-18 04:25:00,
2013-12-17 23:28:00,67.0,59.0,30.16,NW,316,2.5,2.5,75,0.00,,,0.00,TxWx,2013-12-18 04:28:00,
2013-12-17 23:29:00,66.9,59.0,30.16,NW,316,2.5,2.5,75,0.00,,,0.00,TxWx,2013-12-18 04:29:00,
2013-12-17 23:30:00,67.0,59.0,30.16,WNW,294,1.9,1.9,75,0.00,,,0.00,TxWx,2013-12-18 04:30:00,
2013-12-17 23:33:00,66.8,59.0,30.16,WNW,294,3.1,3.1,75,0.00,,,0.00,TxWx,2013-12-18 04:33:00,
2013-12-17 23:34:00,66.8,59.0,30.16,NW,316,2.5,3.1,75,0.00,,,0.00,TxWx,2013-12-18 04:34:00,
2013-12-17 23:35:00,66.8,59.0,30.16,NW,316,1.9,1.9,76,0.00,,,0.00,TxWx,2013-12-18 04:35:00,
2013-12-17 23:36:00,66.7,59.0,30.16,WNW,294,2.5,2.5,76,0.00,,,0.00,TxWx,2013-12-18 04:36:00,
2013-12-17 23:39:00,66.8,59.0,30.16,WNW,294,1.9,1.9,76,0.00,,,0.00,TxWx,2013-12-18 04:39:00,
2013-12-17 23:40:00,66.8,59.0,30.16,WNW,294,1.2,1.9,76,0.00,,,0.00,TxWx,2013-12-18 04:40:00,
2013-12-17 23:41:00,66.8,59.0,30.16,WNW,294,1.2,1.9,76,0.00,,,0.00,TxWx,2013-12-18 04:41:00,
2013-12-17 23:44:00,66.6,59.0,30.16,WNW,294,2.5,2.5,76,0.00,,,0.00,TxWx,2013-12-18 04:44:00,
2013-12-17 23:45:00,66.5,59.0,30.16,West,271,2.5,2.5,76,0.00,,,0.00,TxWx,2013-12-18 04:45:00,
2013-12-17 23:46:00,66.5,58.0,30.16,West,271,2.5,2.5,76,0.00,,,0.00,TxWx,2013-12-18 04:46:00,
2013-12-17 23:49:00,66.1,58.0,30.16,West,271,3.1,3.7,76,0.00,,,0.00,TxWx,2013-12-18 04:49:00,
2013-12-17 23:50:00,66.2,58.0,30.16,West,271,3.1,3.1,76,0.00,,,0.00,TxWx,2013-12-18 04:50:00,
2013-12-17 23:51:00,66.1,58.0,30.16,WNW,294,2.5,2.5,76,0.00,,,0.00,TxWx,2013-12-18 04:51:00,
2013-12-17 23:52:00,66.0,58.0,30.16,WNW,294,3.7,3.7,76,0.00,,,0.00,TxWx,2013-12-18 04:52:00,
2013-12-17 23:54:00,65.9,59.0,30.16,West,271,3.7,4.3,77,0.00,,,0.00,TxWx,2013-12-18 04:54:00,
2013-12-17 23:55:00,65.8,59.0,30.16,WNW,294,2.5,2.5,77,0.00,,,0.00,TxWx,2013-12-18 04:55:00,
2013-12-17 23:56:00,65.7,59.0,30.16,West,271,3.7,3.7,77,0.00,,,0.00,TxWx,2013-12-18 04:56:00,
2013-12-17 23:57:00,65.7,59.0,30.16,West,271,3.1,3.1,77,0.00,,,0.00,TxWx,2013-12-18 04:57:00,
2013-12-17 23:59:00,65.6,59.0,30.16,West,271,3.7,3.7,78,0.00,,,0.00,TxWx,2013-12-18 04:59:00,